FDX27 EDDK-KMEM

Flight info

Callsign FDX27
Flight time N/A
Altitude 32000
Route NVO2Q NVO Y868 SOGRI L608 DENUT L610 HEMEL T420 TNT UL28 PENIL M144 BAGSO DCT LIMRI/M084F340 DCT 52N020W 51N030W 4930N04000W 48N050W DCT NICSO/M083F360 N246A VITOL/N0481F360 DCT ACK Q430 CREEL/N0485F380 Q430 SAAME/N0482F320 J6 MRB/N0483F380 J6 HVQ Q68 RAMRD BLUZZ5
Aircraft MD11/H-SDE1E2E3FGHIJ2J3J4J5M1RWXY/LB1D1

Departure

Time 2026-05-07 21:01
Airport Cologne Bonn Airport (EDDK)

Arrival

Time N/A
Airport Memphis International Airport (KMEM)
Time Latitude Longitude Altitude Speed Heading
2026-05-07 20:31 50.86859 7.12960 248 ft 0 kts 47°
2026-05-07 20:39 50.86853 7.12950 248 ft 4 kts 47°
2026-05-07 20:40 50.86835 7.12919 248 ft 4 kts 47°
2026-05-07 20:40 50.86820 7.12894 248 ft 4 kts 53°
2026-05-07 20:40 50.86810 7.12863 248 ft 4 kts 91°
2026-05-07 20:40 50.86814 7.12831 247 ft 4 kts 132°
2026-05-07 20:41 50.86832 7.12803 247 ft 4 kts 137°
2026-05-07 20:41 50.86839 7.12794 246 ft 0 kts 137°
2026-05-07 20:48 50.86839 7.12795 246 ft 0 kts 137°
2026-05-07 20:48 50.86833 7.12803 247 ft 2 kts 137°
2026-05-07 20:48 50.86821 7.12821 247 ft 3 kts 137°
2026-05-07 20:48 50.86803 7.12846 248 ft 4 kts 137°
2026-05-07 20:49 50.86781 7.12877 248 ft 5 kts 137°
2026-05-07 20:49 50.86756 7.12914 249 ft 5 kts 137°
2026-05-07 20:49 50.86726 7.12957 250 ft 6 kts 137°
2026-05-07 20:49 50.86690 7.13009 251 ft 8 kts 137°
2026-05-07 20:50 50.86646 7.13074 253 ft 9 kts 137°
2026-05-07 20:50 50.86594 7.13148 254 ft 11 kts 137°
2026-05-07 20:50 50.86538 7.13230 256 ft 9 kts 137°
2026-05-07 20:50 50.86496 7.13313 256 ft 8 kts 107°
2026-05-07 20:51 50.86505 7.13380 257 ft 6 kts 64°
2026-05-07 20:51 50.86531 7.13462 256 ft 10 kts 64°
2026-05-07 20:51 50.86565 7.13574 256 ft 13 kts 64°
2026-05-07 20:51 50.86606 7.13709 257 ft 14 kts 64°
2026-05-07 20:52 50.86647 7.13847 260 ft 14 kts 64°
2026-05-07 20:52 50.86689 7.13985 263 ft 14 kts 64°
2026-05-07 20:52 50.86723 7.14096 263 ft 9 kts 64°
2026-05-07 20:52 50.86777 7.14127 262 ft 10 kts 342°
2026-05-07 20:53 50.86838 7.14047 262 ft 13 kts 316°
2026-05-07 20:53 50.86919 7.13930 258 ft 20 kts 318°
2026-05-07 20:53 50.87041 7.13754 249 ft 27 kts 317°
2026-05-07 20:53 50.87192 7.13534 244 ft 32 kts 317°
2026-05-07 20:54 50.87366 7.13284 240 ft 35 kts 317°
2026-05-07 20:54 50.87528 7.13049 240 ft 22 kts 317°
2026-05-07 20:54 50.87634 7.12894 240 ft 20 kts 317°
2026-05-07 20:54 50.87728 7.12759 240 ft 17 kts 317°
2026-05-07 20:55 50.87807 7.12647 239 ft 10 kts 321°
2026-05-07 20:55 50.87849 7.12613 239 ft 6 kts 342°
2026-05-07 20:55 50.87894 7.12613 240 ft 8 kts
2026-05-07 20:55 50.87946 7.12654 240 ft 10 kts 37°
2026-05-07 20:56 50.87988 7.12735 243 ft 8 kts 61°
2026-05-07 20:56 50.88000 7.12810 245 ft 6 kts 86°
2026-05-07 20:56 50.88003 7.12873 246 ft 6 kts 84°
2026-05-07 20:56 50.88006 7.12949 246 ft 8 kts 96°
2026-05-07 20:57 50.87990 7.12991 246 ft 0 kts 135°
2026-05-07 20:57 50.87981 7.13005 246 ft 3 kts 135°
2026-05-07 20:57 50.87958 7.13040 246 ft 4 kts 137°
2026-05-07 20:57 50.87958 7.13041 246 ft 0 kts 137°
2026-05-07 21:00 50.87957 7.13042 246 ft 0 kts 137°
2026-05-07 21:00 50.87784 7.13289 246 ft 73 kts 137°
2026-05-07 21:00 50.87225 7.14103 253 ft 145 kts 137°
2026-05-07 21:00 50.86363 7.15354 309 ft 193 kts 135°
2026-05-07 21:01 50.85368 7.16814 963 ft 195 kts 136°
2026-05-07 21:01 50.84403 7.18223 1908 ft 194 kts 136°
2026-05-07 21:01 50.83312 7.19794 2094 ft 229 kts 137°
2026-05-07 21:01 50.82115 7.21363 2916 ft 227 kts 146°
2026-05-07 21:02 50.80640 7.22294 3626 ft 231 kts 174°
2026-05-07 21:02 50.79054 7.21989 4295 ft 235 kts 202°
2026-05-07 21:02 50.77574 7.20830 4957 ft 240 kts 211°
2026-05-07 21:02 50.76268 7.19255 5454 ft 249 kts 229°
2026-05-07 21:03 50.75442 7.16824 5583 ft 266 kts 260°
2026-05-07 21:03 50.75435 7.13835 5775 ft 287 kts 279°
2026-05-07 21:03 50.75806 7.10819 6540 ft 293 kts 283°
2026-05-07 21:03 50.76254 7.07714 7440 ft 298 kts 283°
2026-05-07 21:04 50.76717 7.04532 8355 ft 303 kts 283°
2026-05-07 21:04 50.77182 7.01277 9245 ft 309 kts 282°
2026-05-07 21:04 50.77644 6.97987 10124 ft 313 kts 282°
2026-05-07 21:04 50.78124 6.94517 10433 ft 340 kts 282°
2026-05-07 21:05 50.78637 6.90768 10923 ft 353 kts 282°
2026-05-07 21:05 50.79155 6.86948 11805 ft 357 kts 281°
2026-05-07 21:05 50.79673 6.83118 12682 ft 360 kts 281°
2026-05-07 21:05 50.80195 6.79226 13538 ft 364 kts 281°
2026-05-07 21:06 50.80720 6.75307 14314 ft 367 kts 281°
2026-05-07 21:06 50.81239 6.71413 14991 ft 371 kts 281°
2026-05-07 21:06 50.81770 6.67418 15666 ft 374 kts 281°
2026-05-07 21:06 50.82217 6.63346 16297 ft 377 kts 275°
2026-05-07 21:07 50.82401 6.59250 16928 ft 381 kts 271°
2026-05-07 21:07 50.82470 6.55102 17544 ft 384 kts 270°
2026-05-07 21:07 50.82502 6.50967 18128 ft 388 kts 270°
2026-05-07 21:07 50.82531 6.46692 18666 ft 391 kts 270°
2026-05-07 21:08 50.82564 6.42438 19175 ft 394 kts 270°
2026-05-07 21:08 50.82604 6.38105 19682 ft 396 kts 270°
2026-05-07 21:08 50.82649 6.33753 20176 ft 399 kts 270°
2026-05-07 21:08 50.82697 6.29326 20677 ft 401 kts 270°
2026-05-07 21:09 50.82743 6.25035 21139 ft 403 kts 270°
2026-05-07 21:09 50.82790 6.20611 21616 ft 405 kts 270°
2026-05-07 21:09 50.82836 6.16194 22086 ft 408 kts 270°
2026-05-07 21:09 50.82880 6.11808 22542 ft 410 kts 270°
2026-05-07 21:10 50.82924 6.07249 23025 ft 412 kts 270°
2026-05-07 21:10 50.82953 6.02811 23468 ft 414 kts 269°
2026-05-07 21:10 50.82911 5.98322 23871 ft 417 kts 268°
2026-05-07 21:10 50.82825 5.93744 24261 ft 419 kts 268°
2026-05-07 21:11 50.82722 5.89232 24637 ft 420 kts 267°
2026-05-07 21:11 50.82612 5.84597 25021 ft 422 kts 267°
2026-05-07 21:11 50.82396 5.75308 25764 ft 426 kts 267°
2026-05-07 21:12 50.82288 5.70568 26131 ft 428 kts 267°
2026-05-07 21:12 50.82182 5.65934 26500 ft 430 kts 267°
2026-05-07 21:12 50.82072 5.61211 26895 ft 432 kts 267°
2026-05-07 21:12 50.81962 5.56482 27263 ft 434 kts 267°
2026-05-07 21:13 50.81851 5.51726 27615 ft 435 kts 267°
2026-05-07 21:13 50.81739 5.46948 27957 ft 437 kts 267°
2026-05-07 21:13 50.81624 5.42126 28298 ft 439 kts 267°
2026-05-07 21:13 50.81509 5.37307 28632 ft 441 kts 267°
2026-05-07 21:14 50.81391 5.32478 28958 ft 443 kts 267°
2026-05-07 21:14 50.81271 5.27616 29283 ft 445 kts 267°
2026-05-07 21:14 50.81148 5.22731 29588 ft 447 kts 267°
2026-05-07 21:14 50.81022 5.17820 29886 ft 449 kts 267°
2026-05-07 21:15 50.80894 5.12902 30193 ft 450 kts 267°
2026-05-07 21:15 50.80773 5.07967 30421 ft 452 kts 269°
2026-05-07 21:15 50.80954 5.03041 30707 ft 452 kts 278°
2026-05-07 21:15 50.81610 4.98204 31003 ft 452 kts 284°
2026-05-07 21:16 50.82502 4.93458 31289 ft 452 kts 286°
2026-05-07 21:16 50.83472 4.88748 31590 ft 452 kts 287°
2026-05-07 21:16 50.84442 4.84056 31874 ft 451 kts 287°
2026-05-07 21:16 50.85389 4.79351 32044 ft 452 kts 286°
2026-05-07 21:17 50.87230 4.69836 32084 ft 454 kts 285°
2026-05-07 21:17 50.89031 4.60249 32101 ft 455 kts 285°
2026-05-07 21:18 50.91281 4.50938 32101 ft 457 kts 296°
2026-05-07 21:18 50.94520 4.42300 32101 ft 458 kts 300°
2026-05-07 21:19 50.97891 4.33824 32099 ft 458 kts 300°
2026-05-07 21:19 51.01220 4.25239 32091 ft 458 kts 299°
2026-05-07 21:20 51.04505 4.16608 32090 ft 458 kts 299°
2026-05-07 21:20 51.07775 4.07954 32087 ft 458 kts 299°
2026-05-07 21:21 51.11050 3.99258 32079 ft 458 kts 299°
2026-05-07 21:21 51.14306 3.90588 32078 ft 458 kts 299°
2026-05-07 21:22 51.17568 3.81876 32074 ft 458 kts 299°
2026-05-07 21:22 51.20812 3.73181 32075 ft 459 kts 298°
2026-05-07 21:23 51.23805 3.64253 32078 ft 456 kts 288°
2026-05-07 21:23 51.25386 3.54507 32076 ft 455 kts 279°
2026-05-07 21:24 51.26531 3.44621 32077 ft 455 kts 279°
2026-05-07 21:24 51.27726 3.34727 32084 ft 455 kts 280°
2026-05-07 21:25 51.28976 3.24842 32095 ft 455 kts 280°
2026-05-07 21:25 51.30242 3.14970 32095 ft 453 kts 280°
2026-05-07 21:26 51.31499 3.05121 32097 ft 453 kts 280°
2026-05-07 21:26 51.32745 2.95283 32099 ft 453 kts 280°
2026-05-07 21:27 51.33983 2.85426 32090 ft 453 kts 280°
2026-05-07 21:27 51.35211 2.75555 32086 ft 454 kts 279°
2026-05-07 21:28 51.36202 2.67412 32088 ft 454 kts 279°
2026-05-07 21:28 51.37408 2.57522 32090 ft 454 kts 279°
2026-05-07 21:29 51.38616 2.47647 32089 ft 454 kts 279°
2026-05-07 21:29 51.39822 2.37748 32098 ft 454 kts 279°
2026-05-07 21:30 51.41020 2.27839 32086 ft 454 kts 279°
2026-05-07 21:30 51.42217 2.17897 32088 ft 454 kts 279°
2026-05-07 21:31 51.43414 2.08039 32090 ft 454 kts 279°
2026-05-07 21:31 51.44603 1.98181 32090 ft 454 kts 279°
2026-05-07 21:32 51.45774 1.88238 32094 ft 455 kts 279°
2026-05-07 21:32 51.46930 1.78275 32091 ft 455 kts 279°
2026-05-07 21:33 51.48078 1.68326 32089 ft 455 kts 279°
2026-05-07 21:33 51.49220 1.58351 32092 ft 455 kts 279°
2026-05-07 21:34 51.50348 1.48385 32095 ft 455 kts 279°
2026-05-07 21:34 51.51475 1.38405 32090 ft 456 kts 278°
2026-05-07 21:35 51.52598 1.28401 32095 ft 456 kts 278°
2026-05-07 21:35 51.53716 1.18367 32098 ft 456 kts 278°
2026-05-07 21:36 51.54809 1.08363 32095 ft 456 kts 278°
2026-05-07 21:36 51.55890 0.98360 32097 ft 456 kts 278°
2026-05-07 21:37 51.56968 0.88339 32101 ft 458 kts 278°
2026-05-07 21:37 51.58041 0.78337 32104 ft 457 kts 278°
2026-05-07 21:38 51.59116 0.68274 32099 ft 457 kts 278°
2026-05-07 21:38 51.60171 0.58231 32102 ft 456 kts 278°
2026-05-07 21:39 51.61212 0.48184 32104 ft 456 kts 278°
2026-05-07 21:39 51.62255 0.38095 32094 ft 458 kts 277°
2026-05-07 21:40 51.63286 0.28078 32093 ft 459 kts 277°
2026-05-07 21:40 51.64341 0.17904 32094 ft 459 kts 280°
2026-05-07 21:41 51.66354 0.08230 32099 ft 462 kts 291°
2026-05-07 21:41 51.69073 -0.01168 32082 ft 463 kts 293°
2026-05-07 21:42 51.71811 -0.10565 32077 ft 464 kts 292°
2026-05-07 21:42 51.74485 -0.20045 32076 ft 464 kts 292°
2026-05-07 21:43 51.76999 -0.29109 32075 ft 464 kts 291°
2026-05-07 21:43 51.79841 -0.38472 32077 ft 466 kts 300°
2026-05-07 21:44 51.84192 -0.46264 32079 ft 472 kts 320°
2026-05-07 21:44 51.89811 -0.51781 32076 ft 476 kts 329°
2026-05-07 21:45 51.95644 -0.56872 32074 ft 476 kts 328°
2026-05-07 21:45 52.01374 -0.62236 32068 ft 475 kts 327°
2026-05-07 21:46 52.07039 -0.67763 32066 ft 474 kts 326°
2026-05-07 21:46 52.12670 -0.73317 32065 ft 473 kts 326°
2026-05-07 21:47 52.18295 -0.78884 32055 ft 473 kts 326°
2026-05-07 21:47 52.23925 -0.84459 32056 ft 473 kts 326°
2026-05-07 21:48 52.29551 -0.90046 32068 ft 472 kts 326°
2026-05-07 21:48 52.35149 -0.95617 32062 ft 471 kts 326°
2026-05-07 21:49 52.40700 -1.01155 32065 ft 472 kts 326°
2026-05-07 21:49 52.46270 -1.06728 32042 ft 473 kts 326°
2026-05-07 21:50 52.51888 -1.12378 32043 ft 473 kts 326°
2026-05-07 21:50 52.57489 -1.18029 32031 ft 472 kts 326°
2026-05-07 21:51 52.63082 -1.23681 32021 ft 472 kts 326°
2026-05-07 21:51 52.68670 -1.29338 32014 ft 472 kts 326°
2026-05-07 21:52 52.74246 -1.35010 32053 ft 472 kts 325°
2026-05-07 21:52 52.79795 -1.40672 32050 ft 470 kts 325°
2026-05-07 21:53 52.85348 -1.46350 32049 ft 469 kts 325°
2026-05-07 21:53 52.90897 -1.52041 32046 ft 469 kts 325°
2026-05-07 21:54 52.96444 -1.57748 32057 ft 473 kts 325°
2026-05-07 21:54 53.02035 -1.63514 32047 ft 472 kts 325°
2026-05-07 21:55 53.07603 -1.69295 32050 ft 472 kts 325°
2026-05-07 21:55 53.13161 -1.75109 32050 ft 472 kts 325°
2026-05-07 21:56 53.18718 -1.80924 32053 ft 472 kts 325°
2026-05-07 21:56 53.23891 -1.87521 32055 ft 466 kts 310°
2026-05-07 21:57 53.27454 -1.96397 32050 ft 460 kts 293°
2026-05-07 21:57 53.30040 -2.06161 32051 ft 460 kts 291°
2026-05-07 21:58 53.32692 -2.15932 32049 ft 462 kts 293°
2026-05-07 21:58 53.35461 -2.25650 32047 ft 462 kts 291°
2026-05-07 21:59 53.37653 -2.35711 32047 ft 460 kts 285°
2026-05-07 21:59 53.39541 -2.45948 32046 ft 460 kts 285°
2026-05-07 22:00 53.41429 -2.56187 32045 ft 460 kts 285°
2026-05-07 22:00 53.43348 -2.66442 32041 ft 463 kts 285°
2026-05-07 22:01 53.45279 -2.76742 32026 ft 463 kts 285°
2026-05-07 22:01 53.47204 -2.87056 32026 ft 463 kts 285°
2026-05-07 22:02 53.49104 -2.97394 32024 ft 463 kts 284°
2026-05-07 22:02 53.50996 -3.07732 32023 ft 463 kts 284°
2026-05-07 22:03 53.52891 -3.18067 32022 ft 463 kts 284°
2026-05-07 22:03 53.54786 -3.28434 32021 ft 464 kts 284°
2026-05-07 22:04 53.56670 -3.38802 32020 ft 464 kts 284°
2026-05-07 22:04 53.58535 -3.49190 32021 ft 463 kts 284°
2026-05-07 22:05 53.60379 -3.59583 32018 ft 463 kts 284°
2026-05-07 22:05 53.61843 -3.70103 32020 ft 460 kts 274°
2026-05-07 22:06 53.62348 -3.80830 32016 ft 459 kts 270°
2026-05-07 22:06 53.62687 -3.91581 32017 ft 459 kts 270°
2026-05-07 22:07 53.63067 -4.02317 32014 ft 459 kts 271°
2026-05-07 22:07 53.63476 -4.13017 32008 ft 460 kts 271°
2026-05-07 22:08 53.63888 -4.23760 32009 ft 459 kts 271°
2026-05-07 22:08 53.64291 -4.34498 32007 ft 459 kts 271°
2026-05-07 22:09 53.64682 -4.45238 32004 ft 459 kts 271°
2026-05-07 22:09 53.65060 -4.55908 32008 ft 459 kts 270°
2026-05-07 22:10 53.65435 -4.66654 32002 ft 459 kts 270°
2026-05-07 22:10 53.65803 -4.77370 31999 ft 457 kts 270°
2026-05-07 22:11 53.66155 -4.88060 31990 ft 457 kts 270°
2026-05-07 22:11 53.66494 -4.98758 31990 ft 457 kts 270°
2026-05-07 22:12 53.66833 -5.09452 31988 ft 457 kts 270°
2026-05-07 22:12 53.67155 -5.20145 31989 ft 457 kts 270°
2026-05-07 22:13 53.67461 -5.30848 31981 ft 457 kts 270°
2026-05-07 22:13 53.67764 -5.41559 31985 ft 457 kts 270°
2026-05-07 22:14 53.67457 -5.52184 31984 ft 453 kts 258°
2026-05-07 22:14 53.66113 -5.62544 31982 ft 452 kts 254°
2026-05-07 22:15 53.64885 -5.71105 31983 ft 452 kts 255°
2026-05-07 22:15 53.63462 -5.81430 31977 ft 452 kts 255°
2026-05-07 22:16 53.62076 -5.91771 31965 ft 452 kts 255°
2026-05-07 22:16 53.60695 -6.02099 31973 ft 452 kts 255°
2026-05-07 22:17 53.59302 -6.12434 31972 ft 452 kts 255°
2026-05-07 22:17 53.57901 -6.22753 31973 ft 453 kts 255°
2026-05-07 22:18 53.55778 -6.38242 31968 ft 453 kts 256°
2026-05-07 22:19 53.54353 -6.48549 31968 ft 453 kts 255°
2026-05-07 22:19 53.52918 -6.58856 31969 ft 453 kts 255°
2026-05-07 22:20 53.51475 -6.69153 31971 ft 453 kts 255°
2026-05-07 22:20 53.50024 -6.79430 31968 ft 451 kts 256°
2026-05-07 22:21 53.48544 -6.89624 32316 ft 451 kts 255°
2026-05-07 22:21 53.47788 -6.94730 32595 ft 450 kts 255°
2026-05-07 22:21 53.47039 -6.99820 32861 ft 449 kts 255°
2026-05-07 22:21 53.46296 -7.04914 33125 ft 449 kts 255°
2026-05-07 22:22 53.45559 -7.09991 33373 ft 448 kts 255°
2026-05-07 22:22 53.44824 -7.15062 33618 ft 447 kts 255°
2026-05-07 22:22 53.44096 -7.20081 33854 ft 446 kts 255°
2026-05-07 22:22 53.43362 -7.25125 34121 ft 444 kts 255°
2026-05-07 22:23 53.42629 -7.30145 34363 ft 442 kts 255°
2026-05-07 22:23 53.41896 -7.35147 34502 ft 443 kts 255°
2026-05-07 22:23 53.41159 -7.40158 34636 ft 443 kts 255°
2026-05-07 22:23 53.40419 -7.45177 34763 ft 443 kts 255°
2026-05-07 22:24 53.39677 -7.50188 34890 ft 444 kts 255°
2026-05-07 22:24 53.38932 -7.55207 35013 ft 444 kts 255°
2026-05-07 22:24 53.38183 -7.60234 35138 ft 444 kts 255°
2026-05-07 22:24 53.37433 -7.65249 35260 ft 445 kts 254°
2026-05-07 22:25 53.36680 -7.70274 35391 ft 445 kts 254°
2026-05-07 22:25 53.35926 -7.75292 35527 ft 444 kts 254°
2026-05-07 22:25 53.35171 -7.80301 35668 ft 444 kts 254°
2026-05-07 22:25 53.34412 -7.85317 35793 ft 444 kts 254°
2026-05-07 22:26 53.33652 -7.90318 35920 ft 444 kts 254°
2026-05-07 22:26 53.32890 -7.95323 36043 ft 443 kts 254°
2026-05-07 22:26 53.32128 -8.00313 36179 ft 443 kts 254°
2026-05-07 22:26 53.31364 -8.05302 36294 ft 443 kts 254°
2026-05-07 22:27 53.30598 -8.10286 36426 ft 442 kts 254°
2026-05-07 22:27 53.29830 -8.15270 36559 ft 442 kts 254°
2026-05-07 22:27 53.29054 -8.20238 36678 ft 441 kts 253°
2026-05-07 22:27 53.28271 -8.25119 36836 ft 441 kts 253°
2026-05-07 22:28 53.27465 -8.30124 36954 ft 440 kts 253°
2026-05-07 22:28 53.26688 -8.34994 37075 ft 439 kts 253°
2026-05-07 22:28 53.25897 -8.39981 37221 ft 438 kts 254°
2026-05-07 22:28 53.25121 -8.44897 37354 ft 437 kts 254°
2026-05-07 22:29 53.24348 -8.49797 37491 ft 436 kts 253°
2026-05-07 22:29 53.23585 -8.54628 37627 ft 435 kts 253°
2026-05-07 22:29 53.22804 -8.59563 37765 ft 434 kts 253°
2026-05-07 22:29 53.22035 -8.64405 37945 ft 432 kts 253°
2026-05-07 22:30 53.21264 -8.69246 37981 ft 432 kts 253°
2026-05-07 22:30 53.19707 -8.78973 37989 ft 435 kts 253°
2026-05-07 22:31 53.18144 -8.88687 37988 ft 438 kts 253°
2026-05-07 22:31 53.16552 -8.98520 37987 ft 441 kts 253°
2026-05-07 22:32 53.14940 -9.08418 37988 ft 444 kts 253°
2026-05-07 22:32 53.13311 -9.18363 37985 ft 446 kts 253°
2026-05-07 22:33 53.11667 -9.28342 37995 ft 447 kts 253°
2026-05-07 22:33 53.10015 -9.38314 37995 ft 447 kts 253°
2026-05-07 22:34 53.08354 -9.48281 37992 ft 447 kts 253°
2026-05-07 22:34 53.06658 -9.58218 37991 ft 447 kts 252°
2026-05-07 22:35 53.04938 -9.68142 37978 ft 447 kts 253°
2026-05-07 22:35 53.03239 -9.78066 37983 ft 446 kts 253°
2026-05-07 22:36 53.01549 -9.87963 37984 ft 446 kts 253°
2026-05-07 22:36 52.99853 -9.97860 37986 ft 446 kts 253°
2026-05-07 22:37 52.98149 -10.07739 37984 ft 446 kts 253°
2026-05-07 22:37 52.96442 -10.17582 37986 ft 446 kts 253°
2026-05-07 22:38 52.94723 -10.27438 37988 ft 445 kts 253°
2026-05-07 22:38 52.92998 -10.37273 37988 ft 444 kts 253°
2026-05-07 22:39 52.91265 -10.47100 37992 ft 444 kts 253°
2026-05-07 22:39 52.89523 -10.56923 38005 ft 444 kts 253°
2026-05-07 22:40 52.87772 -10.66741 38005 ft 444 kts 253°
2026-05-07 22:40 52.86015 -10.76545 38008 ft 444 kts 252°
2026-05-07 22:41 52.84241 -10.86344 37995 ft 444 kts 252°
2026-05-07 22:41 52.82419 -10.96108 37995 ft 444 kts 252°
2026-05-07 22:42 52.80610 -11.05884 37994 ft 444 kts 252°
2026-05-07 22:42 52.78827 -11.15589 38007 ft 445 kts 252°
2026-05-07 22:43 52.77026 -11.25370 37997 ft 445 kts 252°
2026-05-07 22:43 52.75215 -11.35159 38001 ft 446 kts 252°
2026-05-07 22:44 52.73396 -11.44938 38001 ft 446 kts 252°
2026-05-07 22:44 52.71569 -11.54701 38002 ft 445 kts 252°
2026-05-07 22:45 52.69734 -11.64458 38004 ft 446 kts 252°
2026-05-07 22:45 52.67892 -11.74206 38008 ft 445 kts 252°
2026-05-07 22:46 52.66040 -11.83952 38004 ft 445 kts 252°
2026-05-07 22:46 52.64184 -11.93667 37997 ft 444 kts 252°
2026-05-07 22:47 52.62322 -12.03363 37998 ft 444 kts 252°
2026-05-07 22:47 52.60452 -12.13057 38000 ft 444 kts 252°
2026-05-07 22:48 52.58541 -12.22716 38005 ft 444 kts 251°
2026-05-07 22:48 52.56617 -12.32373 38007 ft 444 kts 251°
2026-05-07 22:49 52.54712 -12.42031 38006 ft 444 kts 251°
2026-05-07 22:49 52.52809 -12.51688 38013 ft 444 kts 251°
2026-05-07 22:50 52.50899 -12.61346 38013 ft 445 kts 251°
2026-05-07 22:50 52.48980 -12.70994 38015 ft 445 kts 251°
2026-05-07 22:51 52.47051 -12.80646 38015 ft 445 kts 251°
2026-05-07 22:51 52.45116 -12.90279 38016 ft 445 kts 251°
2026-05-07 22:52 52.43173 -12.99906 38017 ft 445 kts 251°
2026-05-07 22:52 52.41227 -13.09500 38016 ft 446 kts 251°
2026-05-07 22:53 52.39265 -13.19124 38015 ft 446 kts 251°
2026-05-07 22:53 52.37307 -13.28679 38018 ft 446 kts 251°
2026-05-07 22:54 52.35330 -13.38283 38017 ft 446 kts 251°
2026-05-07 22:54 52.33332 -13.47878 38018 ft 446 kts 250°
2026-05-07 22:55 52.31291 -13.57457 38020 ft 447 kts 250°
2026-05-07 22:55 52.29263 -13.67052 38018 ft 447 kts 251°
2026-05-07 22:56 52.27244 -13.76654 38016 ft 447 kts 251°
2026-05-07 22:56 52.25222 -13.86246 38018 ft 447 kts 251°
2026-05-07 22:57 52.23193 -13.95829 38028 ft 447 kts 250°
2026-05-07 22:57 52.21151 -14.05424 38018 ft 448 kts 250°
2026-05-07 22:58 52.19100 -14.15012 38018 ft 448 kts 250°
2026-05-07 22:58 52.17038 -14.24606 38018 ft 448 kts 250°
2026-05-07 22:59 52.14969 -14.34189 38023 ft 448 kts 250°
2026-05-07 22:59 52.12893 -14.43759 38023 ft 448 kts 250°
2026-05-07 23:00 52.10809 -14.53322 38012 ft 448 kts 250°
2026-05-07 23:00 52.09074 -14.61249 38028 ft 447 kts 250°
2026-05-07 23:01 52.06981 -14.70771 38029 ft 447 kts 250°
2026-05-07 23:01 52.04846 -14.80262 38026 ft 447 kts 249°
2026-05-07 23:02 52.02704 -14.89744 38027 ft 448 kts 250°
2026-05-07 23:02 52.00593 -14.99290 38028 ft 450 kts 253°
2026-05-07 23:03 51.99773 -15.09323 38030 ft 452 kts 270°
2026-05-07 23:03 52.00141 -15.19522 38029 ft 453 kts 272°
2026-05-07 23:04 52.00529 -15.29739 38029 ft 453 kts 271°
2026-05-07 23:04 52.00779 -15.39961 38032 ft 454 kts 270°
2026-05-07 23:05 52.00966 -15.50212 38029 ft 454 kts 270°
2026-05-07 23:05 52.01138 -15.60457 38029 ft 454 kts 270°
2026-05-07 23:06 52.01303 -15.70716 38031 ft 454 kts 270°
2026-05-07 23:06 52.01461 -15.80966 38031 ft 454 kts 270°
2026-05-07 23:07 52.01610 -15.91226 38034 ft 455 kts 270°
2026-05-07 23:07 52.01750 -16.01470 38034 ft 456 kts 270°
2026-05-07 23:08 52.01883 -16.11779 38034 ft 456 kts 270°
2026-05-07 23:08 52.02005 -16.22009 38034 ft 456 kts 270°
2026-05-07 23:09 52.02119 -16.32307 38040 ft 456 kts 270°
2026-05-07 23:09 52.02196 -16.42612 38041 ft 457 kts 269°
2026-05-07 23:10 52.02247 -16.52931 38042 ft 457 kts 269°
2026-05-07 23:10 52.02318 -16.63250 38044 ft 457 kts 270°
2026-05-07 23:11 52.02395 -16.73570 38042 ft 457 kts 270°
2026-05-07 23:11 52.02466 -16.83890 38042 ft 457 kts 269°
2026-05-07 23:12 52.02526 -16.94216 38043 ft 457 kts 270°
2026-05-07 23:12 52.02577 -17.04542 38046 ft 458 kts 269°
2026-05-07 23:13 52.02619 -17.14888 38048 ft 458 kts 269°
2026-05-07 23:13 52.02652 -17.25226 38048 ft 458 kts 269°
2026-05-07 23:14 52.02676 -17.35584 38048 ft 458 kts 269°
2026-05-07 23:14 52.02691 -17.45934 38046 ft 459 kts 269°
2026-05-07 23:15 52.02697 -17.56300 38050 ft 458 kts 269°
2026-05-07 23:15 52.02693 -17.66648 38057 ft 459 kts 269°
2026-05-07 23:16 52.02656 -17.77007 38063 ft 458 kts 269°
2026-05-07 23:16 52.02588 -17.87353 38061 ft 459 kts 269°
2026-05-07 23:17 52.02541 -17.97651 38059 ft 458 kts 269°
2026-05-07 23:17 52.02499 -18.07997 38059 ft 459 kts 269°
2026-05-07 23:18 52.02451 -18.18363 38066 ft 458 kts 269°
2026-05-07 23:18 52.02394 -18.28690 38064 ft 458 kts 269°
2026-05-07 23:19 52.02327 -18.39057 38066 ft 459 kts 269°
2026-05-07 23:19 52.02251 -18.49397 38060 ft 459 kts 269°
2026-05-07 23:20 52.02166 -18.59761 38072 ft 458 kts 269°
2026-05-07 23:20 52.02072 -18.70087 38064 ft 458 kts 269°
2026-05-07 23:21 52.01969 -18.80436 38075 ft 458 kts 269°
2026-05-07 23:21 52.01856 -18.90752 38071 ft 457 kts 269°
2026-05-07 23:22 52.01735 -19.01089 38078 ft 458 kts 269°
2026-05-07 23:22 52.01583 -19.11337 38074 ft 457 kts 268°
2026-05-07 23:23 52.01396 -19.21669 38079 ft 458 kts 268°
2026-05-07 23:23 52.01230 -19.31965 38073 ft 457 kts 269°
2026-05-07 23:24 52.01071 -19.42290 38078 ft 458 kts 269°
2026-05-07 23:24 52.00906 -19.52585 38074 ft 456 kts 269°
2026-05-07 23:25 52.00731 -19.62903 38082 ft 458 kts 269°
2026-05-07 23:25 52.00547 -19.73216 38081 ft 457 kts 268°
2026-05-07 23:26 52.00354 -19.83551 38086 ft 459 kts 269°
2026-05-07 23:26 52.00095 -19.93858 38081 ft 457 kts 267°
2026-05-07 23:27 51.99241 -20.09300 38078 ft 456 kts 266°
2026-05-07 23:27 51.98639 -20.19572 38083 ft 458 kts 266°
2026-05-07 23:28 51.98047 -20.29870 38093 ft 458 kts 266°
2026-05-07 23:28 51.97452 -20.40188 38093 ft 461 kts 266°
2026-05-07 23:29 51.96852 -20.50461 38087 ft 461 kts 265°
2026-05-07 23:29 51.96236 -20.60814 38098 ft 461 kts 266°
2026-05-07 23:30 51.95613 -20.71134 38096 ft 461 kts 266°
2026-05-07 23:30 51.94981 -20.81469 38098 ft 459 kts 265°
2026-05-07 23:31 51.94341 -20.91778 38101 ft 461 kts 266°
2026-05-07 23:31 51.93689 -21.02112 38099 ft 461 kts 266°
2026-05-07 23:32 51.93028 -21.12465 38103 ft 463 kts 266°
2026-05-07 23:32 51.92358 -21.22809 38107 ft 461 kts 265°
2026-05-07 23:33 51.91638 -21.33154 38110 ft 463 kts 266°
2026-05-07 23:33 51.90910 -21.43493 38108 ft 462 kts 265°
2026-05-07 23:34 51.90201 -21.53854 38112 ft 463 kts 266°
2026-05-07 23:34 51.89496 -21.64149 38116 ft 464 kts 266°
2026-05-07 23:35 51.88779 -21.74507 38112 ft 462 kts 266°
2026-05-07 23:35 51.88053 -21.84863 38118 ft 464 kts 266°
2026-05-07 23:36 51.87317 -21.95211 38108 ft 462 kts 265°
2026-05-07 23:36 51.86573 -22.05561 38124 ft 464 kts 266°
2026-05-07 23:37 51.85816 -22.15937 38127 ft 465 kts 265°
2026-05-07 23:37 51.85051 -22.26275 38125 ft 464 kts 265°
2026-05-07 23:38 51.84275 -22.36658 38142 ft 465 kts 265°
2026-05-07 23:38 51.83491 -22.47028 38126 ft 465 kts 266°
2026-05-07 23:39 51.82696 -22.57420 38133 ft 466 kts 266°
2026-05-07 23:39 51.81848 -22.67801 38133 ft 466 kts 265°
2026-05-07 23:40 51.80997 -22.78196 38141 ft 466 kts 265°
2026-05-07 23:40 51.80165 -22.88579 38143 ft 466 kts 266°
2026-05-07 23:41 51.79333 -22.98961 38145 ft 466 kts 266°
2026-05-07 23:41 51.78492 -23.09346 38157 ft 466 kts 265°
2026-05-07 23:42 51.77640 -23.19733 38153 ft 467 kts 265°
2026-05-07 23:42 51.76779 -23.30114 38157 ft 467 kts 265°
2026-05-07 23:43 51.75909 -23.40497 38152 ft 467 kts 265°
2026-05-07 23:43 51.75029 -23.50867 38152 ft 467 kts 265°
2026-05-07 23:44 51.74140 -23.61247 38168 ft 467 kts 265°
2026-05-07 23:44 51.73249 -23.71543 38168 ft 467 kts 265°
2026-05-07 23:45 51.72342 -23.81908 38169 ft 467 kts 265°
2026-05-07 23:45 51.71422 -23.92260 38153 ft 467 kts 265°
2026-05-07 23:46 51.70448 -24.02615 38171 ft 467 kts 265°
2026-05-07 23:46 51.69483 -24.12965 38179 ft 467 kts 265°
2026-05-07 23:47 51.68534 -24.23309 38178 ft 467 kts 265°
2026-05-07 23:47 51.67582 -24.33658 38179 ft 467 kts 265°
2026-05-07 23:48 51.66621 -24.43997 38179 ft 466 kts 265°
2026-05-07 23:48 51.65653 -24.54304 38189 ft 465 kts 265°
2026-05-07 23:49 51.64842 -24.62856 38189 ft 465 kts 265°
2026-05-07 23:49 51.63858 -24.73153 38192 ft 465 kts 265°
2026-05-07 23:50 51.62865 -24.83444 38192 ft 465 kts 265°
2026-05-07 23:50 51.61862 -24.93730 38188 ft 465 kts 265°
2026-05-07 23:51 51.60851 -25.03998 38191 ft 464 kts 265°
2026-05-07 23:51 51.59833 -25.14252 38191 ft 464 kts 265°
2026-05-07 23:52 51.58802 -25.24509 38201 ft 465 kts 265°
2026-05-07 23:52 51.57720 -25.34713 38206 ft 465 kts 265°
2026-05-07 23:53 51.56646 -25.44951 38207 ft 465 kts 265°
2026-05-07 23:53 51.55584 -25.55199 38211 ft 465 kts 265°
2026-05-07 23:54 51.54521 -25.65442 38212 ft 465 kts 265°
2026-05-07 23:54 51.53449 -25.75680 38209 ft 465 kts 265°
2026-05-07 23:55 51.52366 -25.85922 38211 ft 465 kts 265°
2026-05-07 23:55 51.51277 -25.96132 38215 ft 464 kts 265°
2026-05-07 23:56 51.50179 -26.06337 38222 ft 464 kts 265°
2026-05-07 23:56 51.49073 -26.16533 38221 ft 464 kts 265°
2026-05-07 23:57 51.47958 -26.26718 38233 ft 464 kts 265°
2026-05-07 23:57 51.46834 -26.36904 38209 ft 463 kts 265°
2026-05-07 23:58 51.45709 -26.47017 38237 ft 464 kts 265°
2026-05-07 23:58 51.44559 -26.57189 38233 ft 464 kts 265°
2026-05-07 23:59 51.43360 -26.67352 38234 ft 464 kts 265°
2026-05-07 23:59 51.42175 -26.77514 38232 ft 464 kts 265°
2026-05-08 00:00 51.41001 -26.87681 38233 ft 464 kts 265°
2026-05-08 00:00 51.39823 -26.97853 38246 ft 464 kts 265°
2026-05-08 00:01 51.38638 -27.08008 38247 ft 464 kts 265°
2026-05-08 00:01 51.37441 -27.18171 38246 ft 465 kts 265°
2026-05-08 00:02 51.36235 -27.28334 38249 ft 465 kts 265°
2026-05-08 00:02 51.35021 -27.38480 38244 ft 464 kts 265°
2026-05-08 00:03 51.33798 -27.48624 38250 ft 465 kts 265°
2026-05-08 00:03 51.32567 -27.58763 38254 ft 465 kts 265°
2026-05-08 00:04 51.31326 -27.68898 38259 ft 465 kts 265°
2026-05-08 00:04 51.30077 -27.79025 38225 ft 464 kts 265°
2026-05-08 00:05 51.28807 -27.89123 38262 ft 463 kts 265°
2026-05-08 00:05 51.27497 -27.99200 38262 ft 463 kts 265°
2026-05-08 00:06 51.26205 -28.09266 38266 ft 463 kts 265°
2026-05-08 00:06 51.24923 -28.19335 38268 ft 463 kts 265°
2026-05-08 00:07 51.23636 -28.29396 38261 ft 461 kts 266°
2026-05-08 00:07 51.22352 -28.39345 38272 ft 459 kts 266°
2026-05-08 00:08 51.21058 -28.49318 38278 ft 459 kts 266°
2026-05-08 00:08 51.19755 -28.59287 38281 ft 459 kts 266°
2026-05-08 00:09 51.18445 -28.69240 38282 ft 459 kts 265°
2026-05-08 00:09 51.17126 -28.79182 38282 ft 458 kts 265°
2026-05-08 00:10 51.15801 -28.89098 38280 ft 458 kts 265°
2026-05-08 00:10 51.14469 -28.99009 38286 ft 458 kts 265°
2026-05-08 00:11 51.13128 -29.08915 38289 ft 458 kts 265°
2026-05-08 00:11 51.11764 -29.18815 38294 ft 458 kts 265°
2026-05-08 00:12 51.10359 -29.28696 38297 ft 458 kts 265°
2026-05-08 00:12 51.08972 -29.38577 38300 ft 457 kts 265°
2026-05-08 00:13 51.07595 -29.48449 38300 ft 457 kts 265°
2026-05-08 00:13 51.06213 -29.58326 38300 ft 457 kts 265°
2026-05-08 00:14 51.04833 -29.68123 38256 ft 457 kts 265°
2026-05-08 00:14 51.03434 -29.77986 38300 ft 458 kts 265°
2026-05-08 00:15 51.02026 -29.87843 38303 ft 458 kts 265°
2026-05-08 00:15 51.00610 -29.97693 38308 ft 458 kts 265°
2026-05-08 00:16 50.99185 -30.07541 38311 ft 458 kts 265°
2026-05-08 00:16 50.97803 -30.17385 38311 ft 456 kts 267°
2026-05-08 00:17 50.96689 -30.27256 38313 ft 454 kts 269°
2026-05-08 00:17 50.95667 -30.37127 38312 ft 453 kts 269°
2026-05-08 00:18 50.94637 -30.46986 38317 ft 453 kts 269°
2026-05-08 00:18 50.93589 -30.56841 38318 ft 453 kts 269°
2026-05-08 00:19 50.92529 -30.66678 38316 ft 452 kts 269°
2026-05-08 00:19 50.91461 -30.76503 38325 ft 452 kts 269°
2026-05-08 00:20 50.90387 -30.86320 38320 ft 452 kts 269°
2026-05-08 00:20 50.89304 -30.96135 38331 ft 452 kts 269°
2026-05-08 00:21 50.88212 -31.05948 38329 ft 452 kts 269°
2026-05-08 00:21 50.87112 -31.15740 38314 ft 451 kts 269°
2026-05-08 00:22 50.86008 -31.25499 38334 ft 450 kts 269°
2026-05-08 00:22 50.84903 -31.35203 38334 ft 450 kts 269°
2026-05-08 00:23 50.83780 -31.44952 38336 ft 451 kts 269°
2026-05-08 00:23 50.82613 -31.54626 38335 ft 451 kts 269°
2026-05-08 00:24 50.81442 -31.64410 38333 ft 449 kts 269°
2026-05-08 00:24 50.80305 -31.74029 38340 ft 448 kts 269°
2026-05-08 00:25 50.79161 -31.83697 38338 ft 446 kts 269°
2026-05-08 00:25 50.78013 -31.93323 38341 ft 446 kts 269°
2026-05-08 00:26 50.76858 -32.02949 38343 ft 446 kts 269°
2026-05-08 00:26 50.75694 -32.12553 38339 ft 444 kts 269°
2026-05-08 00:27 50.74528 -32.22119 38348 ft 444 kts 269°
2026-05-08 00:27 50.73354 -32.31686 38346 ft 444 kts 269°
2026-05-08 00:28 50.72173 -32.41239 38352 ft 444 kts 269°
2026-05-08 00:28 50.70982 -32.50798 38352 ft 444 kts 269°
2026-05-08 00:29 50.69783 -32.60344 38340 ft 443 kts 269°
2026-05-08 00:29 50.68580 -32.69863 38358 ft 443 kts 269°
2026-05-08 00:30 50.67338 -32.79384 38345 ft 443 kts 268°
2026-05-08 00:30 50.66079 -32.88898 38351 ft 443 kts 268°
2026-05-08 00:31 50.64839 -32.98406 38359 ft 443 kts 268°
2026-05-08 00:31 50.63604 -33.07905 38347 ft 442 kts 268°
2026-05-08 00:32 50.62363 -33.17395 38353 ft 442 kts 268°
2026-05-08 00:32 50.61117 -33.26867 38349 ft 441 kts 268°
2026-05-08 00:33 50.59866 -33.36292 38354 ft 440 kts 268°
2026-05-08 00:33 50.58610 -33.45714 38355 ft 440 kts 268°
2026-05-08 00:34 50.57349 -33.55106 38359 ft 438 kts 267°
2026-05-08 00:34 50.56297 -33.62887 38358 ft 437 kts 267°
2026-05-08 00:35 50.55027 -33.72240 38357 ft 437 kts 267°
2026-05-08 00:35 50.53749 -33.81587 38363 ft 438 kts 267°
2026-05-08 00:36 50.52462 -33.90940 38356 ft 438 kts 267°
2026-05-08 00:36 50.51167 -34.00280 38351 ft 438 kts 266°
2026-05-08 00:37 50.49823 -34.09612 38359 ft 438 kts 266°
2026-05-08 00:38 50.47823 -34.23567 38364 ft 438 kts 266°
2026-05-08 00:38 50.46498 -34.32903 38364 ft 438 kts 266°
2026-05-08 00:39 50.45169 -34.42231 38344 ft 438 kts 266°
2026-05-08 00:39 50.43834 -34.51548 38361 ft 438 kts 266°
2026-05-08 00:40 50.42490 -34.60867 38365 ft 438 kts 266°
2026-05-08 00:40 50.41139 -34.70175 38364 ft 437 kts 266°
2026-05-08 00:41 50.39784 -34.79439 38369 ft 436 kts 266°
2026-05-08 00:41 50.38434 -34.88633 38365 ft 436 kts 266°
2026-05-08 00:42 50.37070 -34.97873 38365 ft 436 kts 265°
2026-05-08 00:42 50.35696 -35.07112 38369 ft 436 kts 265°
2026-05-08 00:43 50.34314 -35.16355 38368 ft 436 kts 265°
2026-05-08 00:43 50.32924 -35.25593 38368 ft 436 kts 265°
2026-05-08 00:44 50.31494 -35.34823 38321 ft 437 kts 264°
2026-05-08 00:44 50.30050 -35.44068 38364 ft 439 kts 265°
2026-05-08 00:45 50.28620 -35.53332 38372 ft 438 kts 265°
2026-05-08 00:45 50.27190 -35.62604 38373 ft 438 kts 265°
2026-05-08 00:46 50.25756 -35.71865 38376 ft 439 kts 265°
2026-05-08 00:46 50.24314 -35.81127 38337 ft 439 kts 264°
2026-05-08 00:47 50.22862 -35.90409 38371 ft 441 kts 264°
2026-05-08 00:47 50.21396 -35.99712 38370 ft 441 kts 264°
2026-05-08 00:48 50.19922 -36.09006 38371 ft 441 kts 264°
2026-05-08 00:48 50.18440 -36.18303 38369 ft 441 kts 264°
2026-05-08 00:49 50.16951 -36.27596 38341 ft 441 kts 263°
2026-05-08 00:49 50.15466 -36.36811 38369 ft 441 kts 263°
2026-05-08 00:50 50.13955 -36.46139 38368 ft 441 kts 263°
2026-05-08 00:50 50.12448 -36.55345 38368 ft 441 kts 263°
2026-05-08 00:51 50.10886 -36.64594 38368 ft 442 kts 263°
2026-05-08 00:51 50.09336 -36.73846 38352 ft 441 kts 263°
2026-05-08 00:52 50.07804 -36.83053 38365 ft 439 kts 263°
2026-05-08 00:52 50.06282 -36.92199 38368 ft 438 kts 263°
2026-05-08 00:53 50.04745 -37.01383 38368 ft 438 kts 262°
2026-05-08 00:53 50.03201 -37.10561 38366 ft 439 kts 262°
2026-05-08 00:54 50.01649 -37.19733 38350 ft 438 kts 262°
2026-05-08 00:54 50.00090 -37.28890 38367 ft 438 kts 262°
2026-05-08 00:55 49.98527 -37.38029 38370 ft 438 kts 262°
2026-05-08 00:55 49.96955 -37.47174 38362 ft 438 kts 261°
2026-05-08 00:56 49.95376 -37.56308 38363 ft 438 kts 261°
2026-05-08 00:56 49.93791 -37.65433 38356 ft 438 kts 261°
2026-05-08 00:57 49.92193 -37.74588 38358 ft 440 kts 261°
2026-05-08 00:57 49.90562 -37.83741 38363 ft 440 kts 260°
2026-05-08 00:58 49.88906 -37.92884 38367 ft 440 kts 260°
2026-05-08 00:58 49.87277 -38.01976 38366 ft 440 kts 260°
2026-05-08 00:59 49.85644 -38.11123 38348 ft 441 kts 260°
2026-05-08 00:59 49.84001 -38.20301 38360 ft 443 kts 260°
2026-05-08 01:00 49.82348 -38.29482 38361 ft 442 kts 260°
2026-05-08 01:00 49.80687 -38.38649 38364 ft 442 kts 259°
2026-05-08 01:01 49.79019 -38.47822 38360 ft 443 kts 259°
2026-05-08 01:01 49.77343 -38.56988 38351 ft 444 kts 259°
2026-05-08 01:02 49.75649 -38.66212 38360 ft 446 kts 259°
2026-05-08 01:02 49.73945 -38.75435 38360 ft 446 kts 259°
2026-05-08 01:03 49.72234 -38.84647 38353 ft 446 kts 258°
2026-05-08 01:03 49.70518 -38.93845 38359 ft 445 kts 258°
2026-05-08 01:04 49.68793 -39.03037 38356 ft 447 kts 258°
2026-05-08 01:04 49.67011 -39.12257 38352 ft 448 kts 257°
2026-05-08 01:05 49.65236 -39.21478 38355 ft 448 kts 258°
2026-05-08 01:05 49.63474 -39.30701 38352 ft 448 kts 258°
2026-05-08 01:06 49.61711 -39.39919 38350 ft 448 kts 258°
2026-05-08 01:06 49.59954 -39.49067 38350 ft 448 kts 258°
2026-05-08 01:07 49.58177 -39.58270 38348 ft 448 kts 257°
2026-05-08 01:07 49.56401 -39.67426 38345 ft 448 kts 257°
2026-05-08 01:08 49.54608 -39.76624 38346 ft 448 kts 257°
2026-05-08 01:08 49.52809 -39.85806 38325 ft 448 kts 257°
2026-05-08 01:09 49.50998 -39.95010 38341 ft 449 kts 257°
2026-05-08 01:09 49.49474 -40.04288 38345 ft 446 kts 263°
2026-05-08 01:10 49.48470 -40.13696 38343 ft 445 kts 264°
2026-05-08 01:10 49.47544 -40.23094 38340 ft 444 kts 264°
2026-05-08 01:11 49.46588 -40.32479 38319 ft 444 kts 264°
2026-05-08 01:11 49.45603 -40.41876 38343 ft 446 kts 264°
2026-05-08 01:12 49.44602 -40.51296 38343 ft 447 kts 264°
2026-05-08 01:12 49.43594 -40.60711 38344 ft 447 kts 264°
2026-05-08 01:13 49.42577 -40.70133 38340 ft 447 kts 263°
2026-05-08 01:13 49.41552 -40.79553 38336 ft 447 kts 263°
2026-05-08 01:14 49.40520 -40.88981 38333 ft 449 kts 263°
2026-05-08 01:14 49.39476 -40.98431 38335 ft 449 kts 263°
2026-05-08 01:15 49.38424 -41.07871 38333 ft 448 kts 263°
2026-05-08 01:15 49.37366 -41.17300 38341 ft 448 kts 263°
2026-05-08 01:16 49.36292 -41.26712 38334 ft 448 kts 262°
2026-05-08 01:16 49.35175 -41.36119 38336 ft 449 kts 262°
2026-05-08 01:17 49.34072 -41.45531 38331 ft 449 kts 262°
2026-05-08 01:17 49.32978 -41.54951 38333 ft 449 kts 262°
2026-05-08 01:18 49.31882 -41.64369 38334 ft 449 kts 262°
2026-05-08 01:18 49.30777 -41.73783 38332 ft 449 kts 262°
2026-05-08 01:19 49.29665 -41.83195 38326 ft 449 kts 262°
2026-05-08 01:19 49.28549 -41.92562 38331 ft 450 kts 262°
2026-05-08 01:20 49.27418 -42.01979 38329 ft 449 kts 261°
2026-05-08 01:20 49.26283 -42.11368 38323 ft 448 kts 261°
2026-05-08 01:21 49.25143 -42.20738 38330 ft 448 kts 261°
2026-05-08 01:21 49.23993 -42.30119 38320 ft 448 kts 261°
2026-05-08 01:22 49.22835 -42.39503 38331 ft 449 kts 261°
2026-05-08 01:22 49.21672 -42.48849 38330 ft 449 kts 261°
2026-05-08 01:23 49.20655 -42.56706 38329 ft 449 kts 260°
2026-05-08 01:23 49.19446 -42.66018 38330 ft 450 kts 261°
2026-05-08 01:24 49.18246 -42.75397 38328 ft 449 kts 261°
2026-05-08 01:24 49.17047 -42.84783 38325 ft 451 kts 261°
2026-05-08 01:25 49.15842 -42.94161 38328 ft 449 kts 260°
2026-05-08 01:25 49.14633 -43.03504 38327 ft 448 kts 260°
2026-05-08 01:26 49.13417 -43.12842 38328 ft 448 kts 260°
2026-05-08 01:26 49.12193 -43.22170 38328 ft 448 kts 260°
2026-05-08 01:27 49.10961 -43.31500 38328 ft 449 kts 259°
2026-05-08 01:27 49.09721 -43.40831 38327 ft 449 kts 259°
2026-05-08 01:28 49.08473 -43.50156 38325 ft 449 kts 259°
2026-05-08 01:28 49.07218 -43.59474 38328 ft 449 kts 259°
2026-05-08 01:29 49.05955 -43.68791 38331 ft 449 kts 259°
2026-05-08 01:29 49.04667 -43.78097 38325 ft 449 kts 258°
2026-05-08 01:30 49.03350 -43.87372 38328 ft 447 kts 258°
2026-05-08 01:30 49.02053 -43.96635 38331 ft 447 kts 258°
2026-05-08 01:31 49.00763 -44.05894 38332 ft 447 kts 258°
2026-05-08 01:31 48.99468 -44.15152 38328 ft 447 kts 258°
2026-05-08 01:32 48.98164 -44.24414 38329 ft 447 kts 258°
2026-05-08 01:32 48.96855 -44.33659 38331 ft 447 kts 258°
2026-05-08 01:33 48.95538 -44.42898 38330 ft 447 kts 258°
2026-05-08 01:33 48.94212 -44.52143 38330 ft 447 kts 258°
2026-05-08 01:34 48.92888 -44.61317 38329 ft 447 kts 258°
2026-05-08 01:34 48.91549 -44.70538 38320 ft 445 kts 257°
2026-05-08 01:35 48.90210 -44.79702 38329 ft 444 kts 257°
2026-05-08 01:35 48.88865 -44.88855 38327 ft 444 kts 257°
2026-05-08 01:36 48.87510 -44.98001 38323 ft 444 kts 257°
2026-05-08 01:36 48.86111 -45.07120 38324 ft 444 kts 257°
2026-05-08 01:37 48.84718 -45.16250 38330 ft 444 kts 257°
2026-05-08 01:37 48.83344 -45.25337 38321 ft 443 kts 257°
2026-05-08 01:38 48.81967 -45.34444 38323 ft 443 kts 257°
2026-05-08 01:38 48.80582 -45.43545 38322 ft 443 kts 257°
2026-05-08 01:39 48.79191 -45.52638 38320 ft 443 kts 256°
2026-05-08 01:39 48.77796 -45.61705 38320 ft 440 kts 256°
2026-05-08 01:40 48.76401 -45.70712 38311 ft 438 kts 256°
2026-05-08 01:40 48.75006 -45.79677 38314 ft 437 kts 256°
2026-05-08 01:41 48.73603 -45.88636 38318 ft 437 kts 256°
2026-05-08 01:41 48.72193 -45.97592 38309 ft 437 kts 256°
2026-05-08 01:42 48.70777 -46.06538 38304 ft 437 kts 256°
2026-05-08 01:42 48.69355 -46.15476 38306 ft 436 kts 256°
2026-05-08 01:43 48.67917 -46.24348 38306 ft 434 kts 255°
2026-05-08 01:43 48.66461 -46.33145 38298 ft 434 kts 255°
2026-05-08 01:44 48.65013 -46.41991 38287 ft 434 kts 255°
2026-05-08 01:44 48.63571 -46.50846 38289 ft 434 kts 255°
2026-05-08 01:45 48.62125 -46.59691 38278 ft 433 kts 256°
2026-05-08 01:45 48.60678 -46.68507 38276 ft 431 kts 256°
2026-05-08 01:46 48.59226 -46.77297 38274 ft 431 kts 256°
2026-05-08 01:46 48.57767 -46.86087 38271 ft 431 kts 256°
2026-05-08 01:47 48.56303 -46.94863 38274 ft 431 kts 256°
2026-05-08 01:47 48.54832 -47.03631 38263 ft 431 kts 256°
2026-05-08 01:48 48.52616 -47.16758 38257 ft 430 kts 256°
2026-05-08 01:48 48.51131 -47.25500 38257 ft 430 kts 256°
2026-05-08 01:49 48.49643 -47.34215 38248 ft 428 kts 256°
2026-05-08 01:49 48.48149 -47.42897 38246 ft 428 kts 255°
2026-05-08 01:50 48.46610 -47.51566 38246 ft 428 kts 255°
2026-05-08 01:50 48.45086 -47.60214 38239 ft 427 kts 256°
2026-05-08 01:51 48.43573 -47.68866 38236 ft 427 kts 256°
2026-05-08 01:51 48.42060 -47.77510 38233 ft 427 kts 256°
2026-05-08 01:52 48.40540 -47.86156 38230 ft 427 kts 256°
2026-05-08 01:52 48.39021 -47.94755 38227 ft 427 kts 256°
2026-05-08 01:53 48.37487 -48.03386 38211 ft 427 kts 257°
2026-05-08 01:53 48.35950 -48.12001 38213 ft 426 kts 257°
2026-05-08 01:54 48.34410 -48.20591 38211 ft 424 kts 257°
2026-05-08 01:54 48.32868 -48.29150 38209 ft 424 kts 257°
2026-05-08 01:55 48.31331 -48.37645 38203 ft 424 kts 257°
2026-05-08 01:55 48.29777 -48.46184 38187 ft 423 kts 258°
2026-05-08 01:56 48.28243 -48.54568 38194 ft 413 kts 258°
2026-05-08 01:56 48.26718 -48.62877 38198 ft 413 kts 258°
2026-05-08 01:57 48.25149 -48.71169 38189 ft 413 kts 258°
2026-05-08 01:57 48.23589 -48.79446 38191 ft 412 kts 258°
2026-05-08 01:58 48.22042 -48.87725 38190 ft 412 kts 258°
2026-05-08 01:58 48.20495 -48.95996 38190 ft 412 kts 258°
2026-05-08 01:59 48.18946 -49.04249 38184 ft 408 kts 258°
2026-05-08 01:59 48.17409 -49.12401 38182 ft 406 kts 258°
2026-05-08 02:00 48.15870 -49.20530 38175 ft 405 kts 258°
2026-05-08 02:00 48.14326 -49.28655 38175 ft 406 kts 258°
2026-05-08 02:01 48.12775 -49.36775 38150 ft 404 kts 258°
2026-05-08 02:01 48.11238 -49.44776 38158 ft 398 kts 258°
2026-05-08 02:02 48.09706 -49.52730 38164 ft 397 kts 258°
2026-05-08 02:02 48.08172 -49.60667 38152 ft 397 kts 258°
2026-05-08 02:03 48.06631 -49.68602 38144 ft 397 kts 258°
2026-05-08 02:03 48.05096 -49.76475 38143 ft 397 kts 257°
2026-05-08 02:04 48.03527 -49.84361 38166 ft 392 kts 256°
2026-05-08 02:04 48.01761 -49.91959 38135 ft 385 kts 255°
2026-05-08 02:05 47.99949 -49.99486 38135 ft 385 kts 255°
2026-05-08 02:05 47.98152 -50.07003 38119 ft 384 kts 255°
2026-05-08 02:06 47.96360 -50.14516 38121 ft 384 kts 255°
2026-05-08 02:06 47.94567 -50.22023 38121 ft 384 kts 255°
2026-05-08 02:07 47.92780 -50.29472 38112 ft 379 kts 255°
2026-05-08 02:07 47.91012 -50.36826 38113 ft 378 kts 255°
2026-05-08 02:08 47.89234 -50.44200 38099 ft 378 kts 255°
2026-05-08 02:08 47.87451 -50.51566 38100 ft 378 kts 255°
2026-05-08 02:09 47.85664 -50.58925 38094 ft 378 kts 255°
2026-05-08 02:09 47.84176 -50.65035 38080 ft 378 kts 255°
2026-05-08 02:10 47.82390 -50.72337 38096 ft 374 kts 255°
2026-05-08 02:10 47.80609 -50.79601 38085 ft 372 kts 255°
2026-05-08 02:11 47.78836 -50.86811 38077 ft 371 kts 255°
2026-05-08 02:11 47.77061 -50.94008 38072 ft 371 kts 255°
2026-05-08 02:12 47.75276 -51.01203 38073 ft 371 kts 255°
2026-05-08 02:12 47.73456 -51.08370 38060 ft 369 kts 255°
2026-05-08 02:13 47.71577 -51.15445 38056 ft 368 kts 254°
2026-05-08 02:13 47.69658 -51.22491 38047 ft 368 kts 254°
2026-05-08 02:14 47.67741 -51.29525 38048 ft 368 kts 254°
2026-05-08 02:14 47.65822 -51.36565 38049 ft 368 kts 254°
2026-05-08 02:15 47.63900 -51.43598 38042 ft 368 kts 254°
2026-05-08 02:15 47.61976 -51.50619 38031 ft 367 kts 254°
2026-05-08 02:16 47.60051 -51.57625 38024 ft 367 kts 254°
2026-05-08 02:16 47.58123 -51.64623 38023 ft 367 kts 254°
2026-05-08 02:17 47.56190 -51.71619 38031 ft 365 kts 253°
2026-05-08 02:17 47.54275 -51.78520 38019 ft 362 kts 253°
2026-05-08 02:18 47.52362 -51.85404 37992 ft 361 kts 253°
2026-05-08 02:18 47.50460 -51.92225 38000 ft 361 kts 253°
2026-05-08 02:19 47.48546 -51.99074 37999 ft 361 kts 253°
2026-05-08 02:19 47.46626 -52.05921 37991 ft 361 kts 253°
2026-05-08 02:20 47.44702 -52.12764 37989 ft 361 kts 253°
2026-05-08 02:20 47.42773 -52.19605 37984 ft 361 kts 253°
2026-05-08 02:21 47.40825 -52.26432 37970 ft 361 kts 253°
2026-05-08 02:21 47.38855 -52.33247 37974 ft 361 kts 253°
2026-05-08 02:22 47.36901 -52.40058 37971 ft 360 kts 253°
2026-05-08 02:22 47.34962 -52.46841 37971 ft 360 kts 253°
2026-05-08 02:23 47.33013 -52.53652 37965 ft 361 kts 253°
2026-05-08 02:23 47.31061 -52.60457 37965 ft 361 kts 253°
2026-05-08 02:24 47.29107 -52.67250 37968 ft 358 kts 252°
2026-05-08 02:24 47.27162 -52.73989 37963 ft 357 kts 252°
2026-05-08 02:25 47.25214 -52.80723 37966 ft 357 kts 252°
2026-05-08 02:25 47.23264 -52.87447 37962 ft 357 kts 252°
2026-05-08 02:26 47.21310 -52.94167 37964 ft 358 kts 252°
2026-05-08 02:26 47.19348 -53.00893 37945 ft 358 kts 252°
2026-05-08 02:27 47.17382 -53.07616 37947 ft 358 kts 252°
2026-05-08 02:27 47.15413 -53.14331 37939 ft 358 kts 252°
2026-05-08 02:28 47.13439 -53.21044 37944 ft 358 kts 252°
2026-05-08 02:28 47.11459 -53.27756 37935 ft 358 kts 252°
2026-05-08 02:29 47.09477 -53.34460 37935 ft 359 kts 252°
2026-05-08 02:29 47.07461 -53.41157 37921 ft 359 kts 251°
2026-05-08 02:30 47.05457 -53.47796 37919 ft 358 kts 251°
2026-05-08 02:30 47.03452 -53.54486 37917 ft 358 kts 251°
2026-05-08 02:31 47.01455 -53.61154 37909 ft 356 kts 251°
2026-05-08 02:31 46.99466 -53.67787 37909 ft 355 kts 251°
2026-05-08 02:32 46.97474 -53.74417 37887 ft 356 kts 251°
2026-05-08 02:32 46.95477 -53.81046 37885 ft 356 kts 250°
2026-05-08 02:33 46.93470 -53.87693 37882 ft 357 kts 250°
2026-05-08 02:33 46.91455 -53.94341 37880 ft 357 kts 250°
2026-05-08 02:34 46.89435 -54.00989 37882 ft 358 kts 250°
2026-05-08 02:34 46.87412 -54.07631 37877 ft 358 kts 250°
2026-05-08 02:35 46.85383 -54.14275 37870 ft 358 kts 250°
2026-05-08 02:35 46.83348 -54.20926 37864 ft 360 kts 249°
2026-05-08 02:36 46.81299 -54.27600 37865 ft 360 kts 249°
2026-05-08 02:36 46.79243 -54.34277 37867 ft 361 kts 249°
2026-05-08 02:37 46.77183 -54.40949 37864 ft 361 kts 249°
2026-05-08 02:37 46.75125 -54.47591 37882 ft 361 kts 248°
2026-05-08 02:38 46.73046 -54.54167 37845 ft 359 kts 248°
2026-05-08 02:38 46.70963 -54.60789 37855 ft 360 kts 248°
2026-05-08 02:39 46.68885 -54.67426 37854 ft 360 kts 248°
2026-05-08 02:39 46.66809 -54.74059 37854 ft 360 kts 248°
2026-05-08 02:40 46.64728 -54.80694 37850 ft 361 kts 248°
2026-05-08 02:40 46.62641 -54.87333 37846 ft 361 kts 248°
2026-05-08 02:41 46.60536 -54.94011 37833 ft 363 kts 248°
2026-05-08 02:41 46.58437 -55.00655 37839 ft 364 kts 248°
2026-05-08 02:42 46.56316 -55.07348 37839 ft 365 kts 247°
2026-05-08 02:42 46.54191 -55.14034 37839 ft 365 kts 247°
2026-05-08 02:43 46.52063 -55.20716 37828 ft 365 kts 247°
2026-05-08 02:43 46.49929 -55.27396 37830 ft 365 kts 247°
2026-05-08 02:44 46.47779 -55.34112 37825 ft 368 kts 247°
2026-05-08 02:44 46.45617 -55.40845 37825 ft 368 kts 247°
2026-05-08 02:45 46.43450 -55.47578 37825 ft 369 kts 247°
2026-05-08 02:45 46.41276 -55.54312 37820 ft 369 kts 247°
2026-05-08 02:46 46.39078 -55.61030 37820 ft 369 kts 246°
2026-05-08 02:46 46.36867 -55.67744 37809 ft 370 kts 247°
2026-05-08 02:47 46.34667 -55.74470 37807 ft 370 kts 247°
2026-05-08 02:47 46.32469 -55.81197 37819 ft 370 kts 247°
2026-05-08 02:48 46.30269 -55.87925 37820 ft 370 kts 247°
2026-05-08 02:48 46.28065 -55.94647 37821 ft 370 kts 247°
2026-05-08 02:49 46.25856 -56.01368 37811 ft 370 kts 246°
2026-05-08 02:49 46.23640 -56.08090 37812 ft 371 kts 246°
2026-05-08 02:50 46.21421 -56.14807 37796 ft 371 kts 246°
2026-05-08 02:50 46.19197 -56.21521 37831 ft 370 kts 246°
2026-05-08 02:51 46.17003 -56.28125 37804 ft 362 kts 246°
2026-05-08 02:51 46.14821 -56.34678 37803 ft 362 kts 246°
2026-05-08 02:52 46.12635 -56.41231 37798 ft 364 kts 246°
2026-05-08 02:52 46.10442 -56.47783 37799 ft 365 kts 246°
2026-05-08 02:53 46.08235 -56.54362 37797 ft 365 kts 245°
2026-05-08 02:53 46.06023 -56.60939 37788 ft 365 kts 245°
2026-05-08 02:54 46.03798 -56.67499 37790 ft 365 kts 245°
2026-05-08 02:54 46.01552 -56.74038 37786 ft 365 kts 245°
2026-05-08 02:55 45.98579 -56.82749 37785 ft 364 kts 245°
2026-05-08 02:56 45.96352 -56.89291 37785 ft 364 kts 245°
2026-05-08 02:56 45.94122 -56.95831 37774 ft 364 kts 245°
2026-05-08 02:57 45.91890 -57.02362 37775 ft 364 kts 245°
2026-05-08 02:57 45.89654 -57.08892 37806 ft 364 kts 245°
2026-05-08 02:58 45.87428 -57.15375 37774 ft 361 kts 245°
2026-05-08 02:58 45.85208 -57.21823 37773 ft 360 kts 245°
2026-05-08 02:59 45.82986 -57.28263 37762 ft 360 kts 245°
2026-05-08 02:59 45.80759 -57.34700 37762 ft 360 kts 245°
2026-05-08 03:00 45.78544 -57.41090 37761 ft 360 kts 244°
2026-05-08 03:00 45.76306 -57.47530 37760 ft 362 kts 244°
2026-05-08 03:01 45.74054 -57.53992 37760 ft 363 kts 244°
2026-05-08 03:01 45.71799 -57.60448 37754 ft 363 kts 244°
2026-05-08 03:02 45.69540 -57.66900 37751 ft 363 kts 244°
2026-05-08 03:02 45.67269 -57.73351 37751 ft 363 kts 244°
2026-05-08 03:03 45.64972 -57.79776 37749 ft 364 kts 244°
2026-05-08 03:03 45.62679 -57.86221 37752 ft 364 kts 244°
2026-05-08 03:04 45.60393 -57.92668 37783 ft 364 kts 244°
2026-05-08 03:04 45.58126 -57.99061 37746 ft 359 kts 244°
2026-05-08 03:05 45.55872 -58.05407 37748 ft 358 kts 244°
2026-05-08 03:05 45.53614 -58.11749 37757 ft 358 kts 243°
2026-05-08 03:06 45.51361 -58.18062 37744 ft 356 kts 243°
2026-05-08 03:06 45.49110 -58.24353 37744 ft 356 kts 243°
2026-05-08 03:07 45.46855 -58.30643 37743 ft 356 kts 243°
2026-05-08 03:07 45.44608 -58.36894 37743 ft 356 kts 243°
2026-05-08 03:08 45.42346 -58.43173 37749 ft 356 kts 243°
2026-05-08 03:08 45.40080 -58.49449 37742 ft 357 kts 243°
2026-05-08 03:09 45.37807 -58.55727 37743 ft 357 kts 243°
2026-05-08 03:09 45.35531 -58.62002 37741 ft 357 kts 243°
2026-05-08 03:10 45.33252 -58.68269 37738 ft 357 kts 243°
2026-05-08 03:10 45.30968 -58.74537 37771 ft 357 kts 242°
2026-05-08 03:11 45.28673 -58.80770 37746 ft 355 kts 242°
2026-05-08 03:11 45.26378 -58.86948 37733 ft 353 kts 242°
2026-05-08 03:12 45.24099 -58.93117 37730 ft 353 kts 242°
2026-05-08 03:12 45.21826 -58.99286 37731 ft 353 kts 242°
2026-05-08 03:13 45.19568 -59.05409 37733 ft 353 kts 242°
2026-05-08 03:13 45.17291 -59.11571 37731 ft 353 kts 242°
2026-05-08 03:14 45.15011 -59.17726 37731 ft 353 kts 242°
2026-05-08 03:14 45.12729 -59.23876 37725 ft 353 kts 242°
2026-05-08 03:15 45.10445 -59.30016 37727 ft 353 kts 242°
2026-05-08 03:15 45.08157 -59.36153 37730 ft 353 kts 242°
2026-05-08 03:16 45.05864 -59.42288 37730 ft 353 kts 242°
2026-05-08 03:16 45.03569 -59.48418 37723 ft 354 kts 241°
2026-05-08 03:17 45.01251 -59.54593 37780 ft 356 kts 240°
2026-05-08 03:17 44.98937 -59.60745 37735 ft 353 kts 240°
2026-05-08 03:18 44.96627 -59.66869 37732 ft 353 kts 240°
2026-05-08 03:18 44.94313 -59.72993 37728 ft 353 kts 240°
2026-05-08 03:19 44.91999 -59.79102 37730 ft 353 kts 240°
2026-05-08 03:19 44.89659 -59.85215 37727 ft 355 kts 240°
2026-05-08 03:20 44.87302 -59.91328 37726 ft 355 kts 240°
2026-05-08 03:20 44.84954 -59.97450 37723 ft 355 kts 240°
2026-05-08 03:21 44.82612 -60.03570 37731 ft 355 kts 240°
2026-05-08 03:21 44.80268 -60.09689 37725 ft 355 kts 240°
2026-05-08 03:22 44.77921 -60.15805 37732 ft 355 kts 240°
2026-05-08 03:22 44.75583 -60.21882 37730 ft 355 kts 240°
2026-05-08 03:23 44.73228 -60.27991 37727 ft 355 kts 240°
2026-05-08 03:23 44.70872 -60.34088 37771 ft 355 kts 239°
2026-05-08 03:24 44.68527 -60.40146 37727 ft 352 kts 239°
2026-05-08 03:24 44.66184 -60.46184 37731 ft 353 kts 239°
2026-05-08 03:25 44.63822 -60.52256 37733 ft 355 kts 239°
2026-05-08 03:25 44.61453 -60.58334 37737 ft 355 kts 239°
2026-05-08 03:26 44.59097 -60.64368 37734 ft 355 kts 239°
2026-05-08 03:26 44.56721 -60.70436 37737 ft 355 kts 239°
2026-05-08 03:27 44.54343 -60.76499 37737 ft 355 kts 239°
2026-05-08 03:27 44.51953 -60.82577 37735 ft 357 kts 239°
2026-05-08 03:28 44.49536 -60.88649 37735 ft 357 kts 239°
2026-05-08 03:28 44.47112 -60.94714 37736 ft 357 kts 239°
2026-05-08 03:29 44.44697 -61.00789 37737 ft 357 kts 239°
2026-05-08 03:29 44.42285 -61.06865 37735 ft 357 kts 239°
2026-05-08 03:30 44.38663 -61.15973 37744 ft 356 kts 238°
2026-05-08 03:31 44.33835 -61.28067 37747 ft 356 kts 238°
2026-05-08 03:32 44.30203 -61.37131 37745 ft 356 kts 238°
2026-05-08 03:32 44.27777 -61.43169 37740 ft 359 kts 238°
2026-05-08 03:33 44.25328 -61.49249 37748 ft 359 kts 238°
2026-05-08 03:33 44.22877 -61.55326 37743 ft 360 kts 238°
2026-05-08 03:34 44.20435 -61.61364 37753 ft 360 kts 238°
2026-05-08 03:34 44.17961 -61.67471 37749 ft 360 kts 238°
2026-05-08 03:35 44.15496 -61.73541 37736 ft 361 kts 238°
2026-05-08 03:35 44.13013 -61.79640 37746 ft 363 kts 238°
2026-05-08 03:36 44.10523 -61.85742 37797 ft 363 kts 237°
2026-05-08 03:36 44.08020 -61.91787 37750 ft 359 kts 236°
2026-05-08 03:37 44.05536 -61.97797 37751 ft 359 kts 236°
2026-05-08 03:37 44.03081 -62.03757 37745 ft 359 kts 236°
2026-05-08 03:38 44.00598 -62.09788 37754 ft 360 kts 236°
2026-05-08 03:38 43.98112 -62.15817 37755 ft 360 kts 236°
2026-05-08 03:39 43.95624 -62.21841 37758 ft 360 kts 236°
2026-05-08 03:39 43.93132 -62.27860 37758 ft 360 kts 236°
2026-05-08 03:40 43.90636 -62.33878 37747 ft 360 kts 236°
2026-05-08 03:40 43.88129 -62.39906 37748 ft 361 kts 236°
2026-05-08 03:41 43.85616 -62.45939 37764 ft 362 kts 236°
2026-05-08 03:41 43.83095 -62.51978 37768 ft 362 kts 236°
2026-05-08 03:42 43.80982 -62.57031 37773 ft 362 kts 236°
2026-05-08 03:42 43.78466 -62.63037 37762 ft 358 kts 236°
2026-05-08 03:43 43.75968 -62.68987 37755 ft 358 kts 235°
2026-05-08 03:43 43.73467 -62.74928 37755 ft 358 kts 235°
2026-05-08 03:44 43.70961 -62.80869 37757 ft 358 kts 235°
2026-05-08 03:44 43.68450 -62.86796 37758 ft 357 kts 235°
2026-05-08 03:45 43.65914 -62.92704 37758 ft 357 kts 235°
2026-05-08 03:45 43.63405 -62.98574 37760 ft 357 kts 235°
2026-05-08 03:46 43.60885 -63.04487 37760 ft 358 kts 235°
2026-05-08 03:46 43.58347 -63.10441 37757 ft 357 kts 235°
2026-05-08 03:47 43.55842 -63.16306 37761 ft 357 kts 235°
2026-05-08 03:47 43.53301 -63.22246 37760 ft 357 kts 235°
2026-05-08 03:48 43.50789 -63.28105 37757 ft 357 kts 235°
2026-05-08 03:48 43.48260 -63.33992 37760 ft 357 kts 235°
2026-05-08 03:49 43.45728 -63.39876 37763 ft 357 kts 235°
2026-05-08 03:49 43.43190 -63.45758 37763 ft 357 kts 235°
2026-05-08 03:50 43.40649 -63.51637 37768 ft 357 kts 235°
2026-05-08 03:50 43.38100 -63.57523 37762 ft 359 kts 235°
2026-05-08 03:51 43.35540 -63.63422 37767 ft 359 kts 235°
2026-05-08 03:51 43.32975 -63.69320 37769 ft 360 kts 235°
2026-05-08 03:52 43.30409 -63.75210 37769 ft 360 kts 234°
2026-05-08 03:52 43.27849 -63.81072 37774 ft 360 kts 234°
2026-05-08 03:53 43.25263 -63.86947 37769 ft 361 kts 234°
2026-05-08 03:53 43.22654 -63.92825 37774 ft 361 kts 234°
2026-05-08 03:54 43.20056 -63.98709 37777 ft 361 kts 234°
2026-05-08 03:54 43.17464 -64.04591 37789 ft 359 kts 235°
2026-05-08 03:55 43.14887 -64.10432 37769 ft 358 kts 235°
2026-05-08 03:55 43.12300 -64.16282 37772 ft 360 kts 235°
2026-05-08 03:56 43.09703 -64.22146 37778 ft 360 kts 234°
2026-05-08 03:56 43.07100 -64.28013 37775 ft 361 kts 234°
2026-05-08 03:57 43.04494 -64.33874 37772 ft 361 kts 234°
2026-05-08 03:57 43.01886 -64.39728 37775 ft 361 kts 234°
2026-05-08 03:58 42.99284 -64.45556 37774 ft 362 kts 234°
2026-05-08 03:58 42.96655 -64.51435 37783 ft 363 kts 234°
2026-05-08 03:59 42.94022 -64.57311 37782 ft 363 kts 234°
2026-05-08 03:59 42.91386 -64.63180 37784 ft 363 kts 234°
2026-05-08 04:00 42.88747 -64.69046 37780 ft 363 kts 234°
2026-05-08 04:00 42.86095 -64.74925 37796 ft 366 kts 235°
2026-05-08 04:01 42.83421 -64.80841 37788 ft 367 kts 235°
2026-05-08 04:01 42.80722 -64.86737 37787 ft 367 kts 235°
2026-05-08 04:02 42.78022 -64.92639 37788 ft 367 kts 235°
2026-05-08 04:02 42.75331 -64.98542 37785 ft 367 kts 235°
2026-05-08 04:03 42.72625 -65.04478 37793 ft 370 kts 235°
2026-05-08 04:03 42.68554 -65.13395 37794 ft 370 kts 235°
2026-05-08 04:04 42.65833 -65.19339 37793 ft 370 kts 235°
2026-05-08 04:04 42.63111 -65.25275 37794 ft 370 kts 235°
2026-05-08 04:05 42.60377 -65.31222 37803 ft 373 kts 235°
2026-05-08 04:05 42.57627 -65.37192 37801 ft 373 kts 235°
2026-05-08 04:06 42.54883 -65.43138 37800 ft 378 kts 236°
2026-05-08 04:06 42.52081 -65.49199 37798 ft 380 kts 236°
2026-05-08 04:07 42.49270 -65.55267 37802 ft 381 kts 236°
2026-05-08 04:07 42.46454 -65.61332 37805 ft 382 kts 236°
2026-05-08 04:08 42.43623 -65.67418 37804 ft 382 kts 236°
2026-05-08 04:08 42.40787 -65.73503 37807 ft 382 kts 236°
2026-05-08 04:09 42.37936 -65.79575 37803 ft 382 kts 235°
2026-05-08 04:09 42.35076 -65.85617 37799 ft 381 kts 235°
2026-05-08 04:10 42.32231 -65.91655 37805 ft 381 kts 235°
2026-05-08 04:10 42.29377 -65.97717 37813 ft 385 kts 236°
2026-05-08 04:11 42.26494 -66.03837 37818 ft 386 kts 236°
2026-05-08 04:11 42.23605 -66.09959 37817 ft 387 kts 236°
2026-05-08 04:12 42.20711 -66.16079 37799 ft 387 kts 236°
2026-05-08 04:12 42.17817 -66.22189 37807 ft 387 kts 236°
2026-05-08 04:13 42.14937 -66.28252 37824 ft 386 kts 236°
2026-05-08 04:13 42.12039 -66.34344 37814 ft 386 kts 236°
2026-05-08 04:14 42.09135 -66.40435 37802 ft 388 kts 236°
2026-05-08 04:14 42.06211 -66.46556 37810 ft 389 kts 236°
2026-05-08 04:15 42.03284 -66.52670 37828 ft 388 kts 236°
2026-05-08 04:15 42.00356 -66.58775 37849 ft 388 kts 236°
2026-05-08 04:16 41.97439 -66.64844 37778 ft 386 kts 237°
2026-05-08 04:16 41.94509 -66.70926 37815 ft 389 kts 236°
2026-05-08 04:17 41.91547 -66.76999 37819 ft 389 kts 236°
2026-05-08 04:17 41.88588 -66.83071 37822 ft 389 kts 236°
2026-05-08 04:18 41.85636 -66.89149 37823 ft 389 kts 236°
2026-05-08 04:18 41.82695 -66.95202 37820 ft 387 kts 237°
2026-05-08 04:19 41.79757 -67.01242 37818 ft 387 kts 237°
2026-05-08 04:19 41.77022 -67.07433 37820 ft 388 kts 246°
2026-05-08 04:20 41.75650 -67.14450 37821 ft 392 kts 255°
2026-05-08 04:20 41.74691 -67.21652 37827 ft 393 kts 255°
2026-05-08 04:21 41.73685 -67.28801 37828 ft 389 kts 255°
2026-05-08 04:21 41.72623 -67.35903 37822 ft 390 kts 255°
2026-05-08 04:22 41.71537 -67.43009 37824 ft 390 kts 255°
2026-05-08 04:22 41.70447 -67.50091 37822 ft 390 kts 255°
2026-05-08 04:23 41.69349 -67.57195 37840 ft 389 kts 254°
2026-05-08 04:23 41.68252 -67.64266 37829 ft 388 kts 254°
2026-05-08 04:24 41.67150 -67.71331 37829 ft 388 kts 254°
2026-05-08 04:24 41.66044 -67.78395 37829 ft 388 kts 254°
2026-05-08 04:25 41.64933 -67.85458 37829 ft 388 kts 254°
2026-05-08 04:25 41.63824 -67.92477 37824 ft 389 kts 254°
2026-05-08 04:26 41.62695 -67.99597 37832 ft 389 kts 254°
2026-05-08 04:26 41.61576 -68.06627 37831 ft 389 kts 254°
2026-05-08 04:27 41.60445 -68.13699 37831 ft 389 kts 254°
2026-05-08 04:27 41.59286 -68.20763 37874 ft 389 kts 253°
2026-05-08 04:28 41.58117 -68.27845 37833 ft 392 kts 253°
2026-05-08 04:28 41.56956 -68.34956 37832 ft 392 kts 253°
2026-05-08 04:29 41.55798 -68.42068 37831 ft 392 kts 253°
2026-05-08 04:29 41.54831 -68.47985 37829 ft 393 kts 254°
2026-05-08 04:30 41.53663 -68.55118 37853 ft 393 kts 253°
2026-05-08 04:30 41.52484 -68.62286 37838 ft 393 kts 253°
2026-05-08 04:31 41.51308 -68.69404 37835 ft 393 kts 253°
2026-05-08 04:31 41.50127 -68.76522 37837 ft 393 kts 253°
2026-05-08 04:32 41.48940 -68.83643 37837 ft 393 kts 253°
2026-05-08 04:32 41.47751 -68.90753 37842 ft 393 kts 253°
2026-05-08 04:33 41.46557 -68.97860 37772 ft 393 kts 253°
2026-05-08 04:33 41.45357 -69.04973 37834 ft 394 kts 253°
2026-05-08 04:34 41.44152 -69.12092 37837 ft 394 kts 253°
2026-05-08 04:34 41.42950 -69.19164 37837 ft 394 kts 253°
2026-05-08 04:35 41.41726 -69.26276 37838 ft 394 kts 253°
2026-05-08 04:35 41.40477 -69.33376 37833 ft 394 kts 253°
2026-05-08 04:36 41.39239 -69.40487 37832 ft 394 kts 253°
2026-05-08 04:36 41.38008 -69.47591 37837 ft 394 kts 253°
2026-05-08 04:37 41.36774 -69.54701 37813 ft 394 kts 253°
2026-05-08 04:37 41.35543 -69.61777 37837 ft 394 kts 253°
2026-05-08 04:38 41.34300 -69.68888 37836 ft 395 kts 253°
2026-05-08 04:38 41.33052 -69.76002 37843 ft 395 kts 253°
2026-05-08 04:39 41.31801 -69.83107 37841 ft 395 kts 253°
2026-05-08 04:39 41.30540 -69.90215 37854 ft 394 kts 253°
2026-05-08 04:40 41.29162 -69.97261 37840 ft 394 kts 252°
2026-05-08 04:40 41.27733 -70.04287 37843 ft 394 kts 252°
2026-05-08 04:41 41.26317 -70.11268 37812 ft 394 kts 252°
2026-05-08 04:41 41.24895 -70.18296 37840 ft 394 kts 252°
2026-05-08 04:42 41.23469 -70.25326 37845 ft 393 kts 252°
2026-05-08 04:42 41.22042 -70.32342 37847 ft 393 kts 252°
2026-05-08 04:43 41.20611 -70.39354 37850 ft 393 kts 252°
2026-05-08 04:43 41.19175 -70.46364 37850 ft 393 kts 252°
2026-05-08 04:44 41.17734 -70.53374 37854 ft 394 kts 252°
2026-05-08 04:44 41.16289 -70.60380 37855 ft 394 kts 252°
2026-05-08 04:45 41.14840 -70.67385 37854 ft 394 kts 252°
2026-05-08 04:45 41.13385 -70.74391 37859 ft 394 kts 252°
2026-05-08 04:46 41.11926 -70.81396 37862 ft 394 kts 252°
2026-05-08 04:46 41.10439 -70.88380 37928 ft 394 kts 252°
2026-05-08 04:47 41.08947 -70.95373 37875 ft 394 kts 252°
2026-05-08 04:47 41.07463 -71.02369 37870 ft 394 kts 252°
2026-05-08 04:48 41.05977 -71.09365 37870 ft 394 kts 252°
2026-05-08 04:48 41.04490 -71.16355 37837 ft 394 kts 252°
2026-05-08 04:49 41.03004 -71.23334 37869 ft 394 kts 252°
2026-05-08 04:49 41.01516 -71.30312 37873 ft 394 kts 252°
2026-05-08 04:50 40.99919 -71.37236 37876 ft 393 kts 250°
2026-05-08 04:50 40.98134 -71.44072 37876 ft 393 kts 249°
2026-05-08 04:51 40.96340 -71.50854 37875 ft 393 kts 249°
2026-05-08 04:51 40.94529 -71.57721 37901 ft 393 kts 250°
2026-05-08 04:52 40.92753 -71.64479 37876 ft 391 kts 250°
2026-05-08 04:52 40.90990 -71.71252 37875 ft 391 kts 250°
2026-05-08 04:53 40.89226 -71.78044 37883 ft 391 kts 250°
2026-05-08 04:53 40.87462 -71.84828 37885 ft 391 kts 250°
2026-05-08 04:54 40.85690 -71.91618 37938 ft 391 kts 250°
2026-05-08 04:54 40.83919 -71.98389 37894 ft 389 kts 250°
2026-05-08 04:55 40.82148 -72.05141 37893 ft 389 kts 250°
2026-05-08 04:55 40.80371 -72.11897 37896 ft 389 kts 250°
2026-05-08 04:56 40.78593 -72.18639 37880 ft 389 kts 250°
2026-05-08 04:56 40.76890 -72.25405 37895 ft 388 kts 251°
2026-05-08 04:57 40.75245 -72.32193 37900 ft 389 kts 251°
2026-05-08 04:57 40.73604 -72.38988 37900 ft 389 kts 251°
2026-05-08 04:58 40.71959 -72.45780 37900 ft 389 kts 251°
2026-05-08 04:58 40.70308 -72.52568 37900 ft 389 kts 251°
2026-05-08 04:59 40.68651 -72.59349 37903 ft 389 kts 251°
2026-05-08 04:59 40.66975 -72.66147 37900 ft 391 kts 251°
2026-05-08 05:00 40.65299 -72.72955 37896 ft 391 kts 252°
2026-05-08 05:00 40.63624 -72.79754 37903 ft 390 kts 252°
2026-05-08 05:01 40.61946 -72.86551 37898 ft 390 kts 251°
2026-05-08 05:01 40.60264 -72.93347 37897 ft 391 kts 251°
2026-05-08 05:02 40.58576 -73.00141 37896 ft 391 kts 252°
2026-05-08 05:02 40.56883 -73.06940 37892 ft 391 kts 252°
2026-05-08 05:03 40.55188 -73.13728 37892 ft 391 kts 252°
2026-05-08 05:03 40.53486 -73.20523 37853 ft 391 kts 252°
2026-05-08 05:04 40.51797 -73.27248 37894 ft 390 kts 252°
2026-05-08 05:04 40.50094 -73.34010 37905 ft 390 kts 252°
2026-05-08 05:05 40.48387 -73.40770 37894 ft 390 kts 252°
2026-05-08 05:05 40.46675 -73.47527 37895 ft 390 kts 252°
2026-05-08 05:06 40.44956 -73.54286 37896 ft 390 kts 252°
2026-05-08 05:06 40.43211 -73.61020 37896 ft 390 kts 252°
2026-05-08 05:07 40.41467 -73.67762 37906 ft 390 kts 252°
2026-05-08 05:07 40.39740 -73.74473 37865 ft 389 kts 252°
2026-05-08 05:08 40.38011 -73.81191 37896 ft 388 kts 252°
2026-05-08 05:08 40.36283 -73.87889 37899 ft 388 kts 252°
2026-05-08 05:09 40.34548 -73.94597 37900 ft 388 kts 252°
2026-05-08 05:09 40.32808 -74.01292 37931 ft 389 kts 252°
2026-05-08 05:10 40.30193 -74.11378 37902 ft 390 kts 252°
2026-05-08 05:11 40.28445 -74.18108 37904 ft 390 kts 252°
2026-05-08 05:11 40.26699 -74.24819 37907 ft 390 kts 252°
2026-05-08 05:12 40.24951 -74.31519 37898 ft 389 kts 253°
2026-05-08 05:12 40.23204 -74.38196 37904 ft 390 kts 253°
2026-05-08 05:13 40.21445 -74.44903 37896 ft 391 kts 253°
2026-05-08 05:13 40.19965 -74.51669 37891 ft 389 kts 261°
2026-05-08 05:14 40.19320 -74.58709 37892 ft 390 kts 264°
2026-05-08 05:14 40.18825 -74.65755 37892 ft 390 kts 264°
2026-05-08 05:15 40.18303 -74.72810 37895 ft 390 kts 263°
2026-05-08 05:15 40.17756 -74.79844 37896 ft 390 kts 263°
2026-05-08 05:16 40.17289 -74.85727 37899 ft 390 kts 263°
2026-05-08 05:16 40.16726 -74.92760 37896 ft 390 kts 263°
2026-05-08 05:17 40.16158 -74.99799 37892 ft 390 kts 263°
2026-05-08 05:17 40.15586 -75.06834 37900 ft 389 kts 263°
2026-05-08 05:18 40.15013 -75.13825 37909 ft 390 kts 263°
2026-05-08 05:18 40.14435 -75.20835 37907 ft 389 kts 263°
2026-05-08 05:19 40.13849 -75.27875 37910 ft 390 kts 263°
2026-05-08 05:19 40.13260 -75.34902 37903 ft 390 kts 263°
2026-05-08 05:20 40.12649 -75.41903 37906 ft 389 kts 263°
2026-05-08 05:20 40.12030 -75.48926 37924 ft 390 kts 263°
2026-05-08 05:21 40.11418 -75.55959 37923 ft 390 kts 263°
2026-05-08 05:21 40.10808 -75.62992 37921 ft 390 kts 263°
2026-05-08 05:22 40.10195 -75.70019 37916 ft 390 kts 263°
2026-05-08 05:22 40.09579 -75.77030 37917 ft 390 kts 263°
2026-05-08 05:23 40.08954 -75.84044 37912 ft 390 kts 263°
2026-05-08 05:23 40.08320 -75.91063 37913 ft 390 kts 263°
2026-05-08 05:24 40.07690 -75.98076 37903 ft 390 kts 263°
2026-05-08 05:24 40.07058 -76.05099 37907 ft 390 kts 263°
2026-05-08 05:25 40.06424 -76.12115 37891 ft 388 kts 264°
2026-05-08 05:25 40.05792 -76.19048 37914 ft 387 kts 264°
2026-05-08 05:26 40.05154 -76.26011 37913 ft 387 kts 264°
2026-05-08 05:26 40.04511 -76.32979 37913 ft 387 kts 264°
2026-05-08 05:27 40.03863 -76.39954 37916 ft 387 kts 264°
2026-05-08 05:27 40.03103 -76.46903 37917 ft 388 kts 258°
2026-05-08 05:28 40.00950 -76.53372 37937 ft 395 kts 245°
2026-05-08 05:28 39.98028 -76.59452 37936 ft 397 kts 243°
2026-05-08 05:29 39.95094 -76.65540 37946 ft 396 kts 244°
2026-05-08 05:29 39.92227 -76.71632 37948 ft 396 kts 244°
2026-05-08 05:30 39.89361 -76.77754 37950 ft 396 kts 244°
2026-05-08 05:30 39.86502 -76.83868 37953 ft 396 kts 244°
2026-05-08 05:31 39.83649 -76.89962 37947 ft 395 kts 244°
2026-05-08 05:31 39.80793 -76.96052 37953 ft 395 kts 244°
2026-05-08 05:32 39.77937 -77.02132 37954 ft 395 kts 244°
2026-05-08 05:32 39.75079 -77.08203 37920 ft 395 kts 244°
2026-05-08 05:33 39.72219 -77.14266 37954 ft 394 kts 245°
2026-05-08 05:33 39.69361 -77.20314 37957 ft 394 kts 244°
2026-05-08 05:34 39.66487 -77.26368 37963 ft 394 kts 245°
2026-05-08 05:34 39.63624 -77.32399 37976 ft 394 kts 245°
2026-05-08 05:35 39.60766 -77.38428 37982 ft 394 kts 245°
2026-05-08 05:35 39.57901 -77.44469 37981 ft 394 kts 245°
2026-05-08 05:36 39.55047 -77.50469 37989 ft 391 kts 245°
2026-05-08 05:36 39.52199 -77.56451 37989 ft 390 kts 245°
2026-05-08 05:37 39.49355 -77.62413 37988 ft 389 kts 245°
2026-05-08 05:37 39.46533 -77.68318 37976 ft 389 kts 245°
2026-05-08 05:38 39.43693 -77.74251 37959 ft 389 kts 245°
2026-05-08 05:38 39.40871 -77.80133 37958 ft 389 kts 245°
2026-05-08 05:39 39.38025 -77.86053 37967 ft 387 kts 246°
2026-05-08 05:39 39.35429 -77.92053 37962 ft 381 kts 249°
2026-05-08 05:40 39.33024 -77.98140 37980 ft 381 kts 250°
2026-05-08 05:40 39.30630 -78.04236 37984 ft 382 kts 249°
2026-05-08 05:41 39.28227 -78.10321 37992 ft 382 kts 249°
2026-05-08 05:41 39.25816 -78.16400 37995 ft 382 kts 249°
2026-05-08 05:42 39.23399 -78.22478 37995 ft 382 kts 249°
2026-05-08 05:42 39.20981 -78.28544 37929 ft 381 kts 250°
2026-05-08 05:43 39.18583 -78.34539 37992 ft 374 kts 250°
2026-05-08 05:43 39.16211 -78.40468 37993 ft 373 kts 250°
2026-05-08 05:44 39.13841 -78.46386 37991 ft 373 kts 250°
2026-05-08 05:44 39.11459 -78.52323 37986 ft 374 kts 250°
2026-05-08 05:45 39.09072 -78.58254 37990 ft 374 kts 250°
2026-05-08 05:45 39.06676 -78.64195 37995 ft 374 kts 250°
2026-05-08 05:46 39.04279 -78.70129 37997 ft 374 kts 250°
2026-05-08 05:46 39.01880 -78.76050 37996 ft 371 kts 250°
2026-05-08 05:47 38.99497 -78.81925 38002 ft 371 kts 250°
2026-05-08 05:47 38.97095 -78.87768 38010 ft 370 kts 250°
2026-05-08 05:48 38.94705 -78.93589 38017 ft 370 kts 250°
2026-05-08 05:48 38.92333 -78.99386 38023 ft 370 kts 250°
2026-05-08 05:49 38.89937 -79.05245 38026 ft 370 kts 250°
2026-05-08 05:49 38.87568 -79.11030 38029 ft 369 kts 250°
2026-05-08 05:50 38.85179 -79.16853 38030 ft 369 kts 250°
2026-05-08 05:50 38.83281 -79.22813 38031 ft 357 kts 259°
2026-05-08 05:51 38.82148 -79.28969 38046 ft 355 kts 262°
2026-05-08 05:51 38.81094 -79.35124 38053 ft 355 kts 262°
2026-05-08 05:52 38.80015 -79.41275 38038 ft 355 kts 261°
2026-05-08 05:52 38.78920 -79.47419 38047 ft 356 kts 261°
2026-05-08 05:53 38.77808 -79.53604 38050 ft 357 kts 261°
2026-05-08 05:53 38.76691 -79.59782 38065 ft 357 kts 261°
2026-05-08 05:54 38.75573 -79.65946 38054 ft 356 kts 261°
2026-05-08 05:54 38.74450 -79.72117 38051 ft 356 kts 261°
2026-05-08 05:55 38.73329 -79.78268 38047 ft 356 kts 261°
2026-05-08 05:55 38.72199 -79.84442 38058 ft 358 kts 261°
2026-05-08 05:56 38.71063 -79.90628 38053 ft 358 kts 261°
2026-05-08 05:56 38.69920 -79.96831 38056 ft 358 kts 261°
2026-05-08 05:57 38.68778 -80.03008 38044 ft 357 kts 261°
2026-05-08 05:57 38.67637 -80.09163 38060 ft 356 kts 261°
2026-05-08 05:58 38.66494 -80.15310 38061 ft 356 kts 261°
2026-05-08 05:58 38.65325 -80.21455 38054 ft 357 kts 260°
2026-05-08 05:59 38.64155 -80.27604 38054 ft 356 kts 260°
2026-05-08 05:59 38.62994 -80.33753 38047 ft 356 kts 260°
2026-05-08 06:00 38.61833 -80.39909 38046 ft 356 kts 260°
2026-05-08 06:00 38.60674 -80.46049 38056 ft 356 kts 260°
2026-05-08 06:01 38.59508 -80.52197 38042 ft 357 kts 260°
2026-05-08 06:01 38.58538 -80.57306 38029 ft 357 kts 261°
2026-05-08 06:02 38.57172 -80.64468 38025 ft 357 kts 261°
2026-05-08 06:02 38.55995 -80.70620 38029 ft 357 kts 261°
2026-05-08 06:03 38.54816 -80.76772 38034 ft 357 kts 260°
2026-05-08 06:03 38.53823 -80.81931 38030 ft 357 kts 260°
2026-05-08 06:04 38.52639 -80.88071 38019 ft 355 kts 260°
2026-05-08 06:04 38.51457 -80.94180 38043 ft 355 kts 260°
2026-05-08 06:05 38.50299 -81.00146 38036 ft 354 kts 260°
2026-05-08 06:05 38.49113 -81.06241 38045 ft 355 kts 260°
2026-05-08 06:06 38.47923 -81.12336 38043 ft 354 kts 260°
2026-05-08 06:06 38.46730 -81.18433 38041 ft 355 kts 260°
2026-05-08 06:07 38.45511 -81.24524 38044 ft 355 kts 260°
2026-05-08 06:07 38.44296 -81.30582 38053 ft 354 kts 260°
2026-05-08 06:08 38.43101 -81.36590 38054 ft 354 kts 260°
2026-05-08 06:08 38.41904 -81.42570 38047 ft 331 kts 260°
2026-05-08 06:08 38.41377 -81.45100 38041 ft 311 kts 260°
2026-05-08 06:09 38.40830 -81.47663 38041 ft 291 kts 260°
2026-05-08 06:09 38.40305 -81.50062 38043 ft 275 kts 260°
2026-05-08 06:09 38.39790 -81.52388 38054 ft 271 kts 260°
2026-05-08 06:09 38.39281 -81.54689 38053 ft 270 kts 260°
2026-05-08 06:10 38.38782 -81.56942 38062 ft 270 kts 260°
2026-05-08 06:10 38.38273 -81.59247 38059 ft 270 kts 260°
2026-05-08 06:10 38.37772 -81.61512 38063 ft 270 kts 260°
2026-05-08 06:10 38.37266 -81.63806 38058 ft 270 kts 260°
2026-05-08 06:11 38.36759 -81.66104 38072 ft 270 kts 260°
2026-05-08 06:11 38.36254 -81.68400 38049 ft 269 kts 260°
2026-05-08 06:11 38.35749 -81.70681 38027 ft 267 kts 261°
2026-05-08 06:11 38.35202 -81.72941 38051 ft 268 kts 257°
2026-05-08 06:12 38.34507 -81.75136 38061 ft 269 kts 256°
2026-05-08 06:12 38.33798 -81.77335 38063 ft 268 kts 256°
2026-05-08 06:12 38.33125 -81.79538 38061 ft 267 kts 257°
2026-05-08 06:12 38.32490 -81.81730 38054 ft 266 kts 258°
2026-05-08 06:13 38.31875 -81.83938 38054 ft 266 kts 258°
2026-05-08 06:13 38.31280 -81.86136 38060 ft 266 kts 258°
2026-05-08 06:13 38.30689 -81.88360 38054 ft 266 kts 259°
2026-05-08 06:13 38.30105 -81.90584 38059 ft 266 kts 259°
2026-05-08 06:14 38.29522 -81.92825 38054 ft 268 kts 259°
2026-05-08 06:14 38.28945 -81.95062 38062 ft 272 kts 259°
2026-05-08 06:14 38.28353 -81.97363 38053 ft 276 kts 259°
2026-05-08 06:14 38.27757 -81.99673 38047 ft 271 kts 259°
2026-05-08 06:15 38.27168 -82.01952 38059 ft 273 kts 259°
2026-05-08 06:15 38.26578 -82.04252 38053 ft 277 kts 259°
2026-05-08 06:15 38.25979 -82.06591 38060 ft 281 kts 259°
2026-05-08 06:15 38.25378 -82.08931 38057 ft 286 kts 258°
2026-05-08 06:16 38.24757 -82.11348 38054 ft 291 kts 258°
2026-05-08 06:16 38.24129 -82.13791 38048 ft 296 kts 258°
2026-05-08 06:16 38.23484 -82.16295 38052 ft 301 kts 258°
2026-05-08 06:17 38.21482 -82.24052 38047 ft 318 kts 258°
2026-05-08 06:17 38.20076 -82.29483 38049 ft 330 kts 258°
2026-05-08 06:18 38.18550 -82.35083 38050 ft 343 kts 256°
2026-05-08 06:18 38.16895 -82.40834 38055 ft 351 kts 256°
2026-05-08 06:19 38.15221 -82.46640 38054 ft 352 kts 256°
2026-05-08 06:19 38.13547 -82.52468 38054 ft 351 kts 256°
2026-05-08 06:20 38.11884 -82.58263 38057 ft 352 kts 256°
2026-05-08 06:20 38.10224 -82.64041 38055 ft 352 kts 256°
2026-05-08 06:21 38.08551 -82.69855 38052 ft 352 kts 256°
2026-05-08 06:21 38.06886 -82.75629 38054 ft 352 kts 256°
2026-05-08 06:22 38.05210 -82.81430 38055 ft 352 kts 256°
2026-05-08 06:22 38.03533 -82.87219 38057 ft 352 kts 256°
2026-05-08 06:23 38.01846 -82.93033 38056 ft 352 kts 256°
2026-05-08 06:23 38.00171 -82.98790 38056 ft 352 kts 256°
2026-05-08 06:24 37.98497 -83.04530 37971 ft 352 kts 256°
2026-05-08 06:24 37.96815 -83.10284 38055 ft 348 kts 256°
2026-05-08 06:25 37.95137 -83.16017 38077 ft 347 kts 256°
2026-05-08 06:25 37.93460 -83.21735 38064 ft 347 kts 256°
2026-05-08 06:26 37.91781 -83.27449 38067 ft 347 kts 256°
2026-05-08 06:26 37.90085 -83.33164 38066 ft 348 kts 256°
2026-05-08 06:27 37.88376 -83.38865 38067 ft 348 kts 256°
2026-05-08 06:27 37.86674 -83.44580 38060 ft 347 kts 256°
2026-05-08 06:28 37.84980 -83.50281 38059 ft 347 kts 256°
2026-05-08 06:28 37.83283 -83.55991 38058 ft 347 kts 256°
2026-05-08 06:29 37.81589 -83.61678 38062 ft 347 kts 256°
2026-05-08 06:29 37.79887 -83.67382 38062 ft 347 kts 256°
2026-05-08 06:30 37.78183 -83.73080 38029 ft 345 kts 256°
2026-05-08 06:30 37.76496 -83.78706 38061 ft 343 kts 256°
2026-05-08 06:31 37.74808 -83.84332 38063 ft 343 kts 256°
2026-05-08 06:31 37.73121 -83.89947 38064 ft 343 kts 256°
2026-05-08 06:32 37.71438 -83.95531 38075 ft 343 kts 256°
2026-05-08 06:32 37.69732 -84.01177 38072 ft 343 kts 256°
2026-05-08 06:33 37.68043 -84.06757 38082 ft 343 kts 256°
2026-05-08 06:33 37.66340 -84.12372 38085 ft 343 kts 256°
2026-05-08 06:34 37.64623 -84.17970 38087 ft 344 kts 255°
2026-05-08 06:34 37.62893 -84.23571 38085 ft 343 kts 256°
2026-05-08 06:35 37.61174 -84.29158 38093 ft 343 kts 256°
2026-05-08 06:35 37.59457 -84.34751 38094 ft 343 kts 256°
2026-05-08 06:36 37.57741 -84.40332 38048 ft 341 kts 255°
2026-05-08 06:36 37.56032 -84.45880 38090 ft 339 kts 255°
2026-05-08 06:37 37.54341 -84.51364 38091 ft 339 kts 255°
2026-05-08 06:37 37.52642 -84.56864 38095 ft 339 kts 255°
2026-05-08 06:38 37.50930 -84.62391 38098 ft 339 kts 255°
2026-05-08 06:38 37.49220 -84.67904 38090 ft 339 kts 255°
2026-05-08 06:39 37.47501 -84.73421 38098 ft 339 kts 255°
2026-05-08 06:39 37.45782 -84.78938 38099 ft 339 kts 255°
2026-05-08 06:40 37.44073 -84.84441 38097 ft 339 kts 255°
2026-05-08 06:40 37.42360 -84.89959 38096 ft 339 kts 255°
2026-05-08 06:41 37.40650 -84.95461 38096 ft 339 kts 255°
2026-05-08 06:41 37.38931 -85.00976 38117 ft 339 kts 255°
2026-05-08 06:42 37.37208 -85.06474 38052 ft 340 kts 255°
2026-05-08 06:42 37.35486 -85.11957 38125 ft 337 kts 255°
2026-05-08 06:43 37.33773 -85.17416 38132 ft 337 kts 255°
2026-05-08 06:43 37.32073 -85.22831 38136 ft 337 kts 255°
2026-05-08 06:44 37.30356 -85.28288 38135 ft 337 kts 255°
2026-05-08 06:44 37.28640 -85.33732 38085 ft 337 kts 255°
2026-05-08 06:45 37.26916 -85.39190 38084 ft 337 kts 255°
2026-05-08 06:45 37.25191 -85.44642 38078 ft 337 kts 255°
2026-05-08 06:46 37.23466 -85.50086 38080 ft 337 kts 255°
2026-05-08 06:46 37.21732 -85.55542 38084 ft 337 kts 255°
2026-05-08 06:47 37.20001 -85.60983 38079 ft 337 kts 255°
2026-05-08 06:47 37.18264 -85.66430 38094 ft 337 kts 255°
2026-05-08 06:48 37.16523 -85.71878 38096 ft 337 kts 254°
2026-05-08 06:48 37.15069 -85.76422 38073 ft 336 kts 254°
2026-05-08 06:49 37.13346 -85.81793 38088 ft 335 kts 254°
2026-05-08 06:49 37.11601 -85.87229 38090 ft 335 kts 254°
2026-05-08 06:50 37.09880 -85.92577 38091 ft 335 kts 254°
2026-05-08 06:50 37.08140 -85.97970 38095 ft 335 kts 254°
2026-05-08 06:51 37.06379 -86.03344 38091 ft 335 kts 254°
2026-05-08 06:51 37.04619 -86.08730 38090 ft 335 kts 254°
2026-05-08 06:52 37.02867 -86.14116 38089 ft 335 kts 254°
2026-05-08 06:52 37.01123 -86.19481 38083 ft 335 kts 254°
2026-05-08 06:53 36.99368 -86.24875 38088 ft 335 kts 254°
2026-05-08 06:53 36.97610 -86.30266 38099 ft 335 kts 254°
2026-05-08 06:54 36.95852 -86.35647 38100 ft 336 kts 254°
2026-05-08 06:54 36.93808 -86.40927 38099 ft 340 kts 249°
2026-05-08 06:55 36.91492 -86.46041 38099 ft 339 kts 248°
2026-05-08 06:55 36.89166 -86.51142 38100 ft 338 kts 248°
2026-05-08 06:56 36.86855 -86.56233 38096 ft 338 kts 248°
2026-05-08 06:56 36.84538 -86.61344 38094 ft 339 kts 248°
2026-05-08 06:57 36.82216 -86.66462 38089 ft 340 kts 248°
2026-05-08 06:57 36.79896 -86.71567 38086 ft 340 kts 248°
2026-05-08 06:58 36.77568 -86.76684 38083 ft 340 kts 248°
2026-05-08 06:58 36.75243 -86.81784 38079 ft 340 kts 248°
2026-05-08 06:59 36.72912 -86.86893 38081 ft 340 kts 248°
2026-05-08 06:59 36.70578 -86.91997 38010 ft 340 kts 248°
2026-05-08 07:00 36.68264 -86.97054 38084 ft 340 kts 248°
2026-05-08 07:00 36.65927 -87.02150 38084 ft 339 kts 248°
2026-05-08 07:01 36.63592 -87.07234 38078 ft 340 kts 248°
2026-05-08 07:01 36.61248 -87.12330 38081 ft 340 kts 248°